Today
| Time | Wind Dr | Wind Spd mph |
Wind Gust mph |
Hum In % |
Humid % |
TempI F |
Temp F |
Raw Bar in |
Tot Rain in |
UV | Solar W/sqm |
DailyRain in |
HourRain in |
24HrRain in |
RainRate in |
|---|---|---|---|---|---|---|---|---|---|---|---|---|---|---|---|
| 05/02/26 12:01:24 AM | 38 | 0.0 | 0.0 | 52 | 77 | 72.6 | 60.3 | 29.949 | 7.14 | 0.0 | 0 | 0.00 | 0.00 | 0.00 | 0.00 |
| 05/02/26 12:02:31 AM | 36 | 0.0 | 0.0 | 52 | 77 | 72.6 | 60.3 | 29.951 | 7.14 | 0.0 | 0 | 0.00 | 0.00 | 0.00 | 0.00 |
| 05/02/26 12:03:25 AM | 38 | 0.0 | 0.0 | 52 | 77 | 72.6 | 60.3 | 29.949 | 7.14 | 0.0 | 0 | 0.00 | 0.00 | 0.00 | 0.00 |
| 05/02/26 12:04:16 AM | 38 | 0.0 | 0.0 | 52 | 77 | 72.6 | 60.3 | 29.948 | 7.14 | 0.0 | 0 | 0.00 | 0.00 | 0.00 | 0.00 |
| 05/02/26 12:05:29 AM | 37 | 0.0 | 0.0 | 52 | 77 | 72.6 | 60.3 | 29.952 | 7.14 | 0.0 | 0 | 0.00 | 0.00 | 0.00 | 0.00 |
| 05/02/26 12:06:23 AM | 36 | 0.0 | 0.0 | 52 | 77 | 72.6 | 60.3 | 29.948 | 7.14 | 0.0 | 0 | 0.00 | 0.00 | 0.00 | 0.00 |
| 05/02/26 12:07:32 AM | 32 | 0.0 | 0.0 | 52 | 77 | 72.6 | 60.2 | 29.950 | 7.14 | 0.0 | 0 | 0.00 | 0.00 | 0.00 | 0.00 |
| 05/02/26 12:08:33 AM | 38 | 0.0 | 0.0 | 52 | 78 | 72.6 | 60.2 | 29.951 | 7.14 | 0.0 | 0 | 0.00 | 0.00 | 0.00 | 0.00 |
| 05/02/26 12:09:27 AM | 37 | 0.0 | 0.0 | 52 | 78 | 72.6 | 60.2 | 29.949 | 7.14 | 0.0 | 0 | 0.00 | 0.00 | 0.00 | 0.00 |
| 05/02/26 12:10:19 AM | 34 | 0.0 | 0.0 | 52 | 78 | 72.6 | 60.2 | 29.950 | 7.14 | 0.0 | 0 | 0.00 | 0.00 | 0.00 | 0.00 |
| 05/02/26 12:11:31 AM | 36 | 0.0 | 0.0 | 52 | 78 | 72.6 | 60.2 | 29.952 | 7.14 | 0.0 | 0 | 0.00 | 0.00 | 0.00 | 0.00 |
| 05/02/26 12:12:20 AM | 32 | 0.0 | 0.0 | 52 | 78 | 72.6 | 60.2 | 29.950 | 7.14 | 0.0 | 0 | 0.00 | 0.00 | 0.00 | 0.00 |
| 05/02/26 12:13:30 AM | 38 | 0.0 | 0.0 | 52 | 78 | 72.6 | 60.1 | 29.952 | 7.14 | 0.0 | 0 | 0.00 | 0.00 | 0.00 | 0.00 |
| 05/02/26 12:14:24 AM | 38 | 0.0 | 0.0 | 52 | 78 | 72.6 | 60.1 | 29.949 | 7.14 | 0.0 | 0 | 0.00 | 0.00 | 0.00 | 0.00 |
| 05/02/26 12:15:37 AM | 35 | 0.0 | 0.0 | 52 | 78 | 72.6 | 60.0 | 29.951 | 7.14 | 0.0 | 0 | 0.00 | 0.00 | 0.00 | 0.00 |
| 05/02/26 12:16:25 AM | 32 | 0.0 | 0.0 | 52 | 78 | 72.6 | 60.0 | 29.949 | 7.14 | 0.0 | 0 | 0.00 | 0.00 | 0.00 | 0.00 |
| 05/02/26 12:17:20 AM | 32 | 0.0 | 0.0 | 52 | 78 | 72.6 | 60.0 | 29.951 | 7.14 | 0.0 | 0 | 0.00 | 0.00 | 0.00 | 0.00 |
| 05/02/26 12:18:30 AM | 34 | 0.0 | 0.0 | 52 | 78 | 72.6 | 60.0 | 29.948 | 7.14 | 0.0 | 0 | 0.00 | 0.00 | 0.00 | 0.00 |
| 05/02/26 12:19:18 AM | 35 | 0.0 | 0.0 | 52 | 78 | 72.6 | 60.0 | 29.948 | 7.14 | 0.0 | 0 | 0.00 | 0.00 | 0.00 | 0.00 |
| 05/02/26 12:20:31 AM | 38 | 0.0 | 0.0 | 52 | 78 | 72.6 | 59.9 | 29.949 | 7.14 | 0.0 | 0 | 0.00 | 0.00 | 0.00 | 0.00 |
| 05/02/26 12:21:22 AM | 36 | 0.0 | 0.0 | 52 | 78 | 72.6 | 59.9 | 29.946 | 7.14 | 0.0 | 0 | 0.00 | 0.00 | 0.00 | 0.00 |
| 05/02/26 12:22:35 AM | 37 | 0.0 | 0.0 | 52 | 78 | 72.6 | 59.9 | 29.948 | 7.14 | 0.0 | 0 | 0.00 | 0.00 | 0.00 | 0.00 |
| 05/02/26 12:23:27 AM | 32 | 0.0 | 0.0 | 52 | 78 | 72.6 | 59.9 | 29.947 | 7.14 | 0.0 | 0 | 0.00 | 0.00 | 0.00 | 0.00 |
| 05/02/26 12:24:36 AM | 37 | 0.0 | 0.0 | 52 | 78 | 72.6 | 59.9 | 29.947 | 7.14 | 0.0 | 0 | 0.00 | 0.00 | 0.00 | 0.00 |
| 05/02/26 12:25:28 AM | 38 | 0.0 | 0.0 | 52 | 78 | 72.6 | 59.9 | 29.948 | 7.14 | 0.0 | 0 | 0.00 | 0.00 | 0.00 | 0.00 |
| 05/02/26 12:26:19 AM | 37 | 0.0 | 0.0 | 52 | 78 | 72.6 | 59.9 | 29.949 | 7.14 | 0.0 | 0 | 0.00 | 0.00 | 0.00 | 0.00 |
| 05/02/26 12:27:32 AM | 36 | 0.0 | 0.0 | 52 | 78 | 72.6 | 59.8 | 29.948 | 7.14 | 0.0 | 0 | 0.00 | 0.00 | 0.00 | 0.00 |
| 05/02/26 12:28:27 AM | 31 | 0.0 | 0.0 | 52 | 78 | 72.6 | 59.8 | 29.949 | 7.14 | 0.0 | 0 | 0.00 | 0.00 | 0.00 | 0.00 |
| 05/02/26 12:29:18 AM | 32 | 0.0 | 0.0 | 52 | 78 | 72.6 | 59.8 | 29.948 | 7.14 | 0.0 | 0 | 0.00 | 0.00 | 0.00 | 0.00 |
| 05/02/26 12:30:28 AM | 34 | 0.0 | 0.0 | 52 | 78 | 72.6 | 59.8 | 29.947 | 7.14 | 0.0 | 0 | 0.00 | 0.00 | 0.00 | 0.00 |
| 05/02/26 12:31:19 AM | 37 | 0.0 | 0.0 | 52 | 78 | 72.6 | 59.8 | 29.948 | 7.14 | 0.0 | 0 | 0.00 | 0.00 | 0.00 | 0.00 |
| 05/02/26 12:32:32 AM | 35 | 0.0 | 0.0 | 52 | 78 | 72.6 | 59.8 | 29.947 | 7.14 | 0.0 | 0 | 0.00 | 0.00 | 0.00 | 0.00 |
| 05/02/26 12:33:24 AM | 37 | 0.0 | 0.0 | 52 | 78 | 72.6 | 59.7 | 29.947 | 7.14 | 0.0 | 0 | 0.00 | 0.00 | 0.00 | 0.00 |
| 05/02/26 12:34:33 AM | 37 | 0.0 | 0.0 | 52 | 78 | 72.5 | 59.7 | 29.942 | 7.14 | 0.0 | 0 | 0.00 | 0.00 | 0.00 | 0.00 |
| 05/02/26 12:35:22 AM | 37 | 0.0 | 0.0 | 52 | 78 | 72.6 | 59.7 | 29.947 | 7.14 | 0.0 | 0 | 0.00 | 0.00 | 0.00 | 0.00 |
| 05/02/26 12:36:35 AM | 35 | 0.0 | 0.0 | 52 | 78 | 72.5 | 59.6 | 29.947 | 7.14 | 0.0 | 0 | 0.00 | 0.00 | 0.00 | 0.00 |
| 05/02/26 12:37:26 AM | 38 | 0.0 | 0.0 | 52 | 78 | 72.6 | 59.6 | 29.946 | 7.14 | 0.0 | 0 | 0.00 | 0.00 | 0.00 | 0.00 |
| 05/02/26 12:38:18 AM | 38 | 0.0 | 0.0 | 52 | 78 | 72.5 | 59.6 | 29.948 | 7.14 | 0.0 | 0 | 0.00 | 0.00 | 0.00 | 0.00 |
| 05/02/26 12:39:30 AM | 35 | 0.0 | 0.0 | 52 | 78 | 72.5 | 59.6 | 29.947 | 7.14 | 0.0 | 0 | 0.00 | 0.00 | 0.00 | 0.00 |
| 05/02/26 12:40:19 AM | 38 | 0.0 | 0.0 | 52 | 78 | 72.6 | 59.6 | 29.946 | 7.14 | 0.0 | 0 | 0.00 | 0.00 | 0.00 | 0.00 |
| 05/02/26 12:41:32 AM | 36 | 0.0 | 0.0 | 52 | 78 | 72.5 | 59.5 | 29.946 | 7.14 | 0.0 | 0 | 0.00 | 0.00 | 0.00 | 0.00 |
| 05/02/26 12:42:23 AM | 38 | 0.0 | 0.0 | 52 | 78 | 72.6 | 59.5 | 29.946 | 7.14 | 0.0 | 0 | 0.00 | 0.00 | 0.00 | 0.00 |
| 05/02/26 12:43:36 AM | 38 | 0.0 | 0.0 | 52 | 78 | 72.5 | 59.5 | 29.947 | 7.14 | 0.0 | 0 | 0.00 | 0.00 | 0.00 | 0.00 |
| 05/02/26 12:44:30 AM | 36 | 0.0 | 0.0 | 52 | 78 | 72.5 | 59.4 | 29.949 | 7.14 | 0.0 | 0 | 0.00 | 0.00 | 0.00 | 0.00 |
| 05/02/26 12:45:22 AM | 36 | 0.0 | 0.0 | 52 | 78 | 72.6 | 59.4 | 29.948 | 7.14 | 0.0 | 0 | 0.00 | 0.00 | 0.00 | 0.00 |
| 05/02/26 12:46:29 AM | 37 | 0.0 | 0.0 | 52 | 78 | 72.6 | 59.4 | 29.948 | 7.14 | 0.0 | 0 | 0.00 | 0.00 | 0.00 | 0.00 |
| 05/02/26 12:47:23 AM | 32 | 0.0 | 0.0 | 52 | 78 | 72.6 | 59.4 | 29.949 | 7.14 | 0.0 | 0 | 0.00 | 0.00 | 0.00 | 0.00 |
| 05/02/26 12:48:39 AM | 35 | 0.0 | 0.0 | 52 | 78 | 72.5 | 59.3 | 29.948 | 7.14 | 0.0 | 0 | 0.00 | 0.00 | 0.00 | 0.00 |
| 05/02/26 12:49:31 AM | 36 | 0.0 | 0.0 | 52 | 78 | 72.5 | 59.3 | 29.947 | 7.14 | 0.0 | 0 | 0.00 | 0.00 | 0.00 | 0.00 |
| 05/02/26 12:50:22 AM | 36 | 0.0 | 0.0 | 52 | 78 | 72.5 | 59.3 | 29.948 | 7.14 | 0.0 | 0 | 0.00 | 0.00 | 0.00 | 0.00 |
| 05/02/26 12:51:32 AM | 34 | 0.0 | 0.0 | 52 | 79 | 72.5 | 59.2 | 29.948 | 7.14 | 0.0 | 0 | 0.00 | 0.00 | 0.00 | 0.00 |
| 05/02/26 12:52:24 AM | 37 | 0.0 | 0.0 | 52 | 78 | 72.5 | 59.2 | 29.948 | 7.14 | 0.0 | 0 | 0.00 | 0.00 | 0.00 | 0.00 |
| 05/02/26 12:53:36 AM | 36 | 0.0 | 0.0 | 52 | 79 | 72.6 | 59.1 | 29.946 | 7.14 | 0.0 | 0 | 0.00 | 0.00 | 0.00 | 0.00 |
| 05/02/26 12:54:28 AM | 37 | 0.0 | 0.0 | 52 | 79 | 72.5 | 59.1 | 29.949 | 7.14 | 0.0 | 0 | 0.00 | 0.00 | 0.00 | 0.00 |
| 05/02/26 12:55:19 AM | 37 | 0.0 | 0.0 | 52 | 79 | 72.5 | 59.1 | 29.948 | 7.14 | 0.0 | 0 | 0.00 | 0.00 | 0.00 | 0.00 |
| 05/02/26 12:56:29 AM | 36 | 0.0 | 0.0 | 52 | 79 | 72.5 | 59.1 | 29.948 | 7.14 | 0.0 | 0 | 0.00 | 0.00 | 0.00 | 0.00 |
| 05/02/26 12:57:20 AM | 36 | 0.0 | 0.0 | 52 | 79 | 72.5 | 59.1 | 29.946 | 7.14 | 0.0 | 0 | 0.00 | 0.00 | 0.00 | 0.00 |
| 05/02/26 12:58:33 AM | 31 | 0.0 | 0.0 | 52 | 79 | 72.5 | 59.1 | 29.947 | 7.14 | 0.0 | 0 | 0.00 | 0.00 | 0.00 | 0.00 |
| 05/02/26 12:59:25 AM | 37 | 0.0 | 0.0 | 52 | 79 | 72.5 | 59.1 | 29.947 | 7.14 | 0.0 | 0 | 0.00 | 0.00 | 0.00 | 0.00 |
| 05/02/26 1:00:19 AM | 34 | 0.0 | 0.0 | 52 | 80 | 72.5 | 59.1 | 29.948 | 7.14 | 0.0 | 0 | 0.00 | 0.00 | 0.00 | 0.00 |
| 05/02/26 1:01:29 AM | 38 | 0.0 | 0.0 | 52 | 80 | 72.5 | 59.1 | 29.947 | 7.14 | 0.0 | 0 | 0.00 | 0.00 | 0.00 | 0.00 |
| 05/02/26 1:02:17 AM | 36 | 0.0 | 0.0 | 52 | 80 | 72.5 | 59.0 | 29.943 | 7.14 | 0.0 | 0 | 0.00 | 0.00 | 0.00 | 0.00 |
| 05/02/26 1:03:30 AM | 35 | 0.0 | 0.0 | 52 | 80 | 72.5 | 59.0 | 29.947 | 7.14 | 0.0 | 0 | 0.00 | 0.00 | 0.00 | 0.00 |
| 05/02/26 1:04:22 AM | 34 | 0.0 | 0.0 | 52 | 80 | 72.5 | 59.0 | 29.945 | 7.14 | 0.0 | 0 | 0.00 | 0.00 | 0.00 | 0.00 |
| 05/02/26 1:05:31 AM | 37 | 0.0 | 0.0 | 52 | 80 | 72.5 | 59.0 | 29.943 | 7.14 | 0.0 | 0 | 0.00 | 0.00 | 0.00 | 0.00 |
| 05/02/26 1:06:26 AM | 37 | 0.0 | 0.0 | 52 | 80 | 72.4 | 58.9 | 29.943 | 7.14 | 0.0 | 0 | 0.00 | 0.00 | 0.00 | 0.00 |
| 05/02/26 1:07:33 AM | 34 | 0.0 | 0.0 | 52 | 80 | 72.5 | 58.9 | 29.944 | 7.14 | 0.0 | 0 | 0.00 | 0.00 | 0.00 | 0.00 |
| 05/02/26 1:08:24 AM | 35 | 0.0 | 0.0 | 52 | 80 | 72.5 | 58.9 | 29.942 | 7.14 | 0.0 | 0 | 0.00 | 0.00 | 0.00 | 0.00 |
| 05/02/26 1:09:19 AM | 35 | 0.0 | 0.0 | 52 | 80 | 72.5 | 58.9 | 29.943 | 7.14 | 0.0 | 0 | 0.00 | 0.00 | 0.00 | 0.00 |
| 05/02/26 1:10:32 AM | 31 | 0.0 | 0.0 | 52 | 80 | 72.5 | 58.9 | 29.941 | 7.14 | 0.0 | 0 | 0.00 | 0.00 | 0.00 | 0.00 |
| 05/02/26 1:11:23 AM | 37 | 0.0 | 0.0 | 52 | 80 | 72.4 | 58.9 | 29.941 | 7.14 | 0.0 | 0 | 0.00 | 0.00 | 0.00 | 0.00 |
| 05/02/26 1:12:30 AM | 36 | 0.0 | 0.0 | 52 | 80 | 72.4 | 58.8 | 29.941 | 7.14 | 0.0 | 0 | 0.00 | 0.00 | 0.00 | 0.00 |
| 05/02/26 1:13:24 AM | 34 | 0.0 | 0.0 | 52 | 80 | 72.4 | 58.8 | 29.941 | 7.14 | 0.0 | 0 | 0.00 | 0.00 | 0.00 | 0.00 |
| 05/02/26 1:14:34 AM | 36 | 0.0 | 0.0 | 52 | 80 | 72.4 | 58.8 | 29.941 | 7.14 | 0.0 | 0 | 0.00 | 0.00 | 0.00 | 0.00 |
| 05/02/26 1:15:29 AM | 34 | 0.0 | 0.0 | 52 | 80 | 72.4 | 58.7 | 29.940 | 7.14 | 0.0 | 0 | 0.00 | 0.00 | 0.00 | 0.00 |
| 05/02/26 1:16:20 AM | 34 | 0.0 | 0.0 | 52 | 80 | 72.4 | 58.7 | 29.938 | 7.14 | 0.0 | 0 | 0.00 | 0.00 | 0.00 | 0.00 |
| 05/02/26 1:17:33 AM | 37 | 0.0 | 0.0 | 52 | 80 | 72.4 | 58.7 | 29.939 | 7.14 | 0.0 | 0 | 0.00 | 0.00 | 0.00 | 0.00 |
| 05/02/26 1:18:21 AM | 36 | 0.0 | 0.0 | 52 | 80 | 72.4 | 58.7 | 29.941 | 7.14 | 0.0 | 0 | 0.00 | 0.00 | 0.00 | 0.00 |
| 05/02/26 1:19:34 AM | 36 | 0.0 | 0.0 | 52 | 80 | 72.4 | 58.7 | 29.938 | 7.14 | 0.0 | 0 | 0.00 | 0.00 | 0.00 | 0.00 |
| 05/02/26 1:20:26 AM | 37 | 0.0 | 0.0 | 52 | 80 | 72.4 | 58.6 | 29.938 | 7.14 | 0.0 | 0 | 0.00 | 0.00 | 0.00 | 0.00 |
| 05/02/26 1:21:17 AM | 36 | 0.0 | 0.0 | 52 | 80 | 72.4 | 58.6 | 29.938 | 7.14 | 0.0 | 0 | 0.00 | 0.00 | 0.00 | 0.00 |
| 05/02/26 1:22:30 AM | 29 | 0.0 | 0.0 | 52 | 80 | 72.4 | 58.6 | 29.939 | 7.14 | 0.0 | 0 | 0.00 | 0.00 | 0.00 | 0.00 |
| 05/02/26 1:23:19 AM | 36 | 0.0 | 0.0 | 52 | 80 | 72.4 | 58.6 | 29.937 | 7.14 | 0.0 | 0 | 0.00 | 0.00 | 0.00 | 0.00 |
| 05/02/26 1:24:31 AM | 34 | 0.0 | 0.0 | 52 | 80 | 72.4 | 58.5 | 29.938 | 7.14 | 0.0 | 0 | 0.00 | 0.00 | 0.00 | 0.00 |
| 05/02/26 1:25:23 AM | 37 | 0.0 | 0.0 | 52 | 81 | 72.4 | 58.5 | 29.937 | 7.14 | 0.0 | 0 | 0.00 | 0.00 | 0.00 | 0.00 |
| 05/02/26 1:26:36 AM | 34 | 0.0 | 0.0 | 52 | 81 | 72.4 | 58.5 | 29.936 | 7.14 | 0.0 | 0 | 0.00 | 0.00 | 0.00 | 0.00 |
| 05/02/26 1:27:27 AM | 36 | 0.0 | 0.0 | 52 | 81 | 72.4 | 58.5 | 29.938 | 7.14 | 0.0 | 0 | 0.00 | 0.00 | 0.00 | 0.00 |
| 05/02/26 1:28:19 AM | 34 | 0.0 | 0.0 | 52 | 81 | 72.4 | 58.4 | 29.934 | 7.14 | 0.0 | 0 | 0.00 | 0.00 | 0.00 | 0.00 |
| 05/02/26 1:29:28 AM | 34 | 0.0 | 0.0 | 52 | 81 | 72.3 | 58.4 | 29.936 | 7.14 | 0.0 | 0 | 0.00 | 0.00 | 0.00 | 0.00 |
| 05/02/26 1:30:20 AM | 36 | 0.0 | 0.0 | 52 | 81 | 72.4 | 58.4 | 29.936 | 7.14 | 0.0 | 0 | 0.00 | 0.00 | 0.00 | 0.00 |
| 05/02/26 1:31:33 AM | 36 | 0.0 | 0.0 | 52 | 81 | 72.4 | 58.4 | 29.935 | 7.14 | 0.0 | 0 | 0.00 | 0.00 | 0.00 | 0.00 |
| 05/02/26 1:32:24 AM | 37 | 0.0 | 0.0 | 52 | 81 | 72.4 | 58.4 | 29.934 | 7.14 | 0.0 | 0 | 0.00 | 0.00 | 0.00 | 0.00 |
| 05/02/26 1:33:34 AM | 32 | 0.0 | 0.0 | 52 | 81 | 72.4 | 58.4 | 29.934 | 7.14 | 0.0 | 0 | 0.00 | 0.00 | 0.00 | 0.00 |
| 05/02/26 1:34:23 AM | 38 | 0.0 | 0.0 | 52 | 81 | 72.4 | 58.3 | 29.932 | 7.14 | 0.0 | 0 | 0.00 | 0.00 | 0.00 | 0.00 |
| 05/02/26 1:35:35 AM | 35 | 0.0 | 0.0 | 52 | 81 | 72.4 | 58.2 | 29.934 | 7.14 | 0.0 | 0 | 0.00 | 0.00 | 0.00 | 0.00 |
| 05/02/26 1:36:27 AM | 36 | 0.0 | 0.0 | 52 | 81 | 72.4 | 58.2 | 29.934 | 7.14 | 0.0 | 0 | 0.00 | 0.00 | 0.00 | 0.00 |
| 05/02/26 1:37:18 AM | 37 | 0.0 | 0.0 | 52 | 81 | 72.3 | 58.2 | 29.930 | 7.14 | 0.0 | 0 | 0.00 | 0.00 | 0.00 | 0.00 |
| 05/02/26 1:38:31 AM | 36 | 0.0 | 0.0 | 52 | 81 | 72.3 | 58.1 | 29.930 | 7.14 | 0.0 | 0 | 0.00 | 0.00 | 0.00 | 0.00 |
| 05/02/26 1:39:20 AM | 34 | 0.0 | 0.0 | 52 | 81 | 72.4 | 58.1 | 29.933 | 7.14 | 0.0 | 0 | 0.00 | 0.00 | 0.00 | 0.00 |
| 05/02/26 1:40:32 AM | 35 | 0.0 | 0.0 | 52 | 81 | 72.3 | 58.1 | 29.933 | 7.14 | 0.0 | 0 | 0.00 | 0.00 | 0.00 | 0.00 |
| 05/02/26 1:41:24 AM | 34 | 0.0 | 0.0 | 52 | 81 | 72.3 | 58.0 | 29.934 | 7.14 | 0.0 | 0 | 0.00 | 0.00 | 0.00 | 0.00 |
| 05/02/26 1:42:19 AM | 37 | 0.0 | 0.0 | 52 | 81 | 72.3 | 58.0 | 29.932 | 7.14 | 0.0 | 0 | 0.00 | 0.00 | 0.00 | 0.00 |
| 05/02/26 1:43:28 AM | 36 | 0.0 | 0.0 | 52 | 81 | 72.3 | 58.0 | 29.933 | 7.14 | 0.0 | 0 | 0.00 | 0.00 | 0.00 | 0.00 |
| 05/02/26 1:44:20 AM | 40 | 0.0 | 0.0 | 52 | 81 | 72.3 | 57.9 | 29.933 | 7.14 | 0.0 | 0 | 0.00 | 0.00 | 0.00 | 0.00 |
| 05/02/26 1:45:30 AM | 37 | 0.0 | 0.0 | 52 | 81 | 72.3 | 57.9 | 29.931 | 7.14 | 0.0 | 0 | 0.00 | 0.00 | 0.00 | 0.00 |
| 05/02/26 1:46:21 AM | 31 | 0.0 | 0.0 | 52 | 81 | 72.3 | 57.8 | 29.931 | 7.14 | 0.0 | 0 | 0.00 | 0.00 | 0.00 | 0.00 |
| 05/02/26 1:47:37 AM | 35 | 0.0 | 0.0 | 52 | 81 | 72.3 | 57.8 | 29.931 | 7.14 | 0.0 | 0 | 0.00 | 0.00 | 0.00 | 0.00 |
| 05/02/26 1:48:29 AM | 34 | 0.0 | 0.0 | 52 | 81 | 72.3 | 57.8 | 29.930 | 7.14 | 0.0 | 0 | 0.00 | 0.00 | 0.00 | 0.00 |
| 05/02/26 1:49:20 AM | 34 | 0.0 | 0.0 | 52 | 81 | 72.3 | 57.7 | 29.931 | 7.14 | 0.0 | 0 | 0.00 | 0.00 | 0.00 | 0.00 |
| 05/02/26 1:50:27 AM | 37 | 0.0 | 0.0 | 52 | 81 | 72.3 | 57.7 | 29.930 | 7.14 | 0.0 | 0 | 0.00 | 0.00 | 0.00 | 0.00 |
| 05/02/26 1:51:21 AM | 35 | 0.0 | 0.0 | 52 | 81 | 72.3 | 57.6 | 29.932 | 7.14 | 0.0 | 0 | 0.00 | 0.00 | 0.00 | 0.00 |
| 05/02/26 1:52:34 AM | 34 | 0.0 | 0.0 | 52 | 81 | 72.3 | 57.6 | 29.930 | 7.14 | 0.0 | 0 | 0.00 | 0.00 | 0.00 | 0.00 |
| 05/02/26 1:53:26 AM | 38 | 0.0 | 0.0 | 52 | 81 | 72.3 | 57.5 | 29.932 | 7.14 | 0.0 | 0 | 0.00 | 0.00 | 0.00 | 0.00 |
| 05/02/26 1:54:18 AM | 32 | 0.0 | 0.0 | 52 | 81 | 72.3 | 57.5 | 29.931 | 7.14 | 0.0 | 0 | 0.00 | 0.00 | 0.00 | 0.00 |
| 05/02/26 1:55:24 AM | 35 | 0.0 | 0.0 | 52 | 81 | 72.3 | 57.5 | 29.933 | 7.14 | 0.0 | 0 | 0.00 | 0.00 | 0.00 | 0.00 |
| 05/02/26 1:56:16 AM | 38 | 0.0 | 0.0 | 52 | 81 | 72.3 | 57.4 | 29.930 | 7.14 | 0.0 | 0 | 0.00 | 0.00 | 0.00 | 0.00 |
| 05/02/26 1:57:29 AM | 32 | 0.0 | 0.0 | 52 | 81 | 72.3 | 57.3 | 29.930 | 7.14 | 0.0 | 0 | 0.00 | 0.00 | 0.00 | 0.00 |
| 05/02/26 1:58:23 AM | 34 | 0.0 | 0.0 | 52 | 81 | 72.2 | 57.3 | 29.931 | 7.14 | 0.0 | 0 | 0.00 | 0.00 | 0.00 | 0.00 |
| 05/02/26 1:59:33 AM | 30 | 0.0 | 0.0 | 52 | 81 | 72.3 | 57.2 | 29.931 | 7.14 | 0.0 | 0 | 0.00 | 0.00 | 0.00 | 0.00 |
| 05/02/26 2:00:27 AM | 36 | 0.0 | 0.0 | 52 | 81 | 72.3 | 57.2 | 29.931 | 7.14 | 0.0 | 0 | 0.00 | 0.00 | 0.00 | 0.00 |
| 05/02/26 2:01:34 AM | 38 | 0.0 | 0.0 | 52 | 81 | 72.2 | 57.1 | 29.929 | 7.14 | 0.0 | 0 | 0.00 | 0.00 | 0.00 | 0.00 |
| 05/02/26 2:02:26 AM | 35 | 0.0 | 0.0 | 52 | 81 | 72.3 | 57.1 | 29.930 | 7.14 | 0.0 | 0 | 0.00 | 0.00 | 0.00 | 0.00 |
| 05/02/26 2:03:17 AM | 36 | 0.0 | 0.0 | 52 | 81 | 72.2 | 57.0 | 29.929 | 7.14 | 0.0 | 0 | 0.00 | 0.00 | 0.00 | 0.00 |
| 05/02/26 2:04:27 AM | 35 | 0.0 | 0.0 | 52 | 81 | 72.2 | 57.0 | 29.930 | 7.14 | 0.0 | 0 | 0.00 | 0.00 | 0.00 | 0.00 |
| 05/02/26 2:05:19 AM | 37 | 2.0 | 2.0 | 52 | 81 | 72.2 | 57.0 | 29.929 | 7.14 | 0.0 | 0 | 0.00 | 0.00 | 0.00 | 0.00 |
| 05/02/26 2:06:29 AM | 31 | 1.0 | 3.0 | 52 | 82 | 72.2 | 56.9 | 29.928 | 7.14 | 0.0 | 0 | 0.00 | 0.00 | 0.00 | 0.00 |
| 05/02/26 2:07:20 AM | 32 | 0.0 | 3.0 | 52 | 82 | 72.2 | 56.9 | 29.928 | 7.14 | 0.0 | 0 | 0.00 | 0.00 | 0.00 | 0.00 |
| 05/02/26 2:08:42 AM | 36 | 0.0 | 3.0 | 52 | 82 | 72.2 | 56.9 | 29.928 | 7.14 | 0.0 | 0 | 0.00 | 0.00 | 0.00 | 0.00 |
| 05/02/26 2:09:33 AM | 38 | 0.0 | 3.0 | 52 | 82 | 72.3 | 56.9 | 29.927 | 7.14 | 0.0 | 0 | 0.00 | 0.00 | 0.00 | 0.00 |
| 05/02/26 2:10:28 AM | 36 | 0.0 | 3.0 | 52 | 82 | 72.2 | 56.9 | 29.928 | 7.14 | 0.0 | 0 | 0.00 | 0.00 | 0.00 | 0.00 |
| 05/02/26 2:11:20 AM | 36 | 0.0 | 3.0 | 52 | 82 | 72.2 | 56.9 | 29.927 | 7.14 | 0.0 | 0 | 0.00 | 0.00 | 0.00 | 0.00 |
| 05/02/26 2:12:27 AM | 34 | 0.0 | 3.0 | 52 | 82 | 72.2 | 56.8 | 29.925 | 7.14 | 0.0 | 0 | 0.00 | 0.00 | 0.00 | 0.00 |
| 05/02/26 2:13:18 AM | 36 | 0.0 | 3.0 | 52 | 82 | 72.2 | 56.9 | 29.926 | 7.14 | 0.0 | 0 | 0.00 | 0.00 | 0.00 | 0.00 |
| 05/02/26 2:14:31 AM | 36 | 1.0 | 3.0 | 52 | 82 | 72.2 | 56.8 | 29.925 | 7.14 | 0.0 | 0 | 0.00 | 0.00 | 0.00 | 0.00 |
| 05/02/26 2:15:25 AM | 37 | 1.0 | 3.0 | 52 | 82 | 72.2 | 56.8 | 29.923 | 7.14 | 0.0 | 0 | 0.00 | 0.00 | 0.00 | 0.00 |
| 05/02/26 2:16:35 AM | 31 | 1.0 | 3.0 | 52 | 82 | 72.2 | 56.8 | 29.924 | 7.14 | 0.0 | 0 | 0.00 | 0.00 | 0.00 | 0.00 |
| 05/02/26 2:17:24 AM | 38 | 1.0 | 3.0 | 52 | 82 | 72.2 | 56.8 | 29.921 | 7.14 | 0.0 | 0 | 0.00 | 0.00 | 0.00 | 0.00 |
| 05/02/26 2:18:36 AM | 35 | 2.0 | 3.0 | 52 | 82 | 72.2 | 56.8 | 29.920 | 7.14 | 0.0 | 0 | 0.00 | 0.00 | 0.00 | 0.00 |
| 05/02/26 2:19:28 AM | 35 | 0.0 | 3.0 | 52 | 82 | 72.2 | 56.8 | 29.922 | 7.14 | 0.0 | 0 | 0.00 | 0.00 | 0.00 | 0.00 |
| 05/02/26 2:20:20 AM | 38 | 0.0 | 3.0 | 52 | 82 | 72.2 | 56.8 | 29.919 | 7.14 | 0.0 | 0 | 0.00 | 0.00 | 0.00 | 0.00 |
| 05/02/26 2:21:35 AM | 36 | 0.0 | 3.0 | 52 | 82 | 72.2 | 56.9 | 29.919 | 7.14 | 0.0 | 0 | 0.00 | 0.00 | 0.00 | 0.00 |
| 05/02/26 2:22:21 AM | 35 | 0.0 | 3.0 | 52 | 82 | 72.2 | 56.9 | 29.918 | 7.14 | 0.0 | 0 | 0.00 | 0.00 | 0.00 | 0.00 |
| 05/02/26 2:23:34 AM | 36 | 0.0 | 3.0 | 52 | 82 | 72.2 | 56.9 | 29.920 | 7.14 | 0.0 | 0 | 0.00 | 0.00 | 0.00 | 0.00 |
| 05/02/26 2:24:25 AM | 34 | 0.0 | 3.0 | 52 | 83 | 72.2 | 56.9 | 29.920 | 7.14 | 0.0 | 0 | 0.00 | 0.00 | 0.00 | 0.00 |
| 05/02/26 2:25:17 AM | 38 | 0.0 | 3.0 | 52 | 83 | 72.2 | 56.8 | 29.918 | 7.14 | 0.0 | 0 | 0.00 | 0.00 | 0.00 | 0.00 |
| 05/02/26 2:26:30 AM | 36 | 0.0 | 3.0 | 52 | 83 | 72.2 | 56.9 | 29.919 | 7.14 | 0.0 | 0 | 0.00 | 0.00 | 0.00 | 0.00 |
| 05/02/26 2:27:21 AM | 38 | 0.0 | 3.0 | 52 | 83 | 72.2 | 56.9 | 29.919 | 7.14 | 0.0 | 0 | 0.00 | 0.00 | 0.00 | 0.00 |
| 05/02/26 2:28:28 AM | 35 | 0.0 | 3.0 | 52 | 83 | 72.2 | 56.9 | 29.917 | 7.14 | 0.0 | 0 | 0.00 | 0.00 | 0.00 | 0.00 |
| 05/02/26 2:29:23 AM | 36 | 0.0 | 3.0 | 52 | 83 | 72.2 | 56.8 | 29.917 | 7.14 | 0.0 | 0 | 0.00 | 0.00 | 0.00 | 0.00 |
| 05/02/26 2:30:35 AM | 35 | 0.0 | 3.0 | 52 | 83 | 72.1 | 56.9 | 29.916 | 7.14 | 0.0 | 0 | 0.00 | 0.00 | 0.00 | 0.00 |
| 05/02/26 2:31:27 AM | 35 | 0.0 | 3.0 | 52 | 83 | 72.1 | 56.9 | 29.917 | 7.14 | 0.0 | 0 | 0.00 | 0.00 | 0.00 | 0.00 |
| 05/02/26 2:32:19 AM | 38 | 0.0 | 3.0 | 52 | 83 | 72.1 | 56.8 | 29.915 | 7.14 | 0.0 | 0 | 0.00 | 0.00 | 0.00 | 0.00 |
| 05/02/26 2:33:28 AM | 36 | 0.0 | 3.0 | 52 | 83 | 72.1 | 56.8 | 29.915 | 7.14 | 0.0 | 0 | 0.00 | 0.00 | 0.00 | 0.00 |
| 05/02/26 2:34:20 AM | 35 | 0.0 | 3.0 | 52 | 83 | 72.1 | 56.8 | 29.916 | 7.14 | 0.0 | 0 | 0.00 | 0.00 | 0.00 | 0.00 |
| 05/02/26 2:35:33 AM | 36 | 0.0 | 3.0 | 52 | 83 | 72.1 | 56.9 | 29.915 | 7.14 | 0.0 | 0 | 0.00 | 0.00 | 0.00 | 0.00 |
| 05/02/26 2:36:25 AM | 38 | 0.0 | 3.0 | 52 | 83 | 72.1 | 56.8 | 29.916 | 7.14 | 0.0 | 0 | 0.00 | 0.00 | 0.00 | 0.00 |
| 05/02/26 2:37:19 AM | 38 | 0.0 | 3.0 | 52 | 83 | 72.1 | 56.8 | 29.915 | 7.14 | 0.0 | 0 | 0.00 | 0.00 | 0.00 | 0.00 |
| 05/02/26 2:38:26 AM | 32 | 0.0 | 3.0 | 52 | 83 | 72.1 | 56.9 | 29.914 | 7.14 | 0.0 | 0 | 0.00 | 0.00 | 0.00 | 0.00 |
| 05/02/26 2:39:18 AM | 38 | 0.0 | 3.0 | 52 | 83 | 72.1 | 56.8 | 29.915 | 7.14 | 0.0 | 0 | 0.00 | 0.00 | 0.00 | 0.00 |
| 05/02/26 2:40:30 AM | 32 | 0.0 | 3.0 | 52 | 83 | 72.1 | 56.9 | 29.915 | 7.14 | 0.0 | 0 | 0.00 | 0.00 | 0.00 | 0.00 |
| 05/02/26 2:41:22 AM | 35 | 0.0 | 3.0 | 52 | 83 | 72.1 | 56.9 | 29.916 | 7.14 | 0.0 | 0 | 0.00 | 0.00 | 0.00 | 0.00 |
| 05/02/26 2:42:35 AM | 38 | 0.0 | 3.0 | 52 | 83 | 72.1 | 56.8 | 29.916 | 7.14 | 0.0 | 0 | 0.00 | 0.00 | 0.00 | 0.00 |
| 05/02/26 2:43:26 AM | 36 | 0.0 | 3.0 | 52 | 83 | 72.1 | 56.8 | 29.916 | 7.14 | 0.0 | 0 | 0.00 | 0.00 | 0.00 | 0.00 |
| 05/02/26 2:44:36 AM | 38 | 0.0 | 3.0 | 52 | 83 | 72.1 | 56.8 | 29.917 | 7.14 | 0.0 | 0 | 0.00 | 0.00 | 0.00 | 0.00 |
| 05/02/26 2:45:49 AM | 35 | 0.0 | 3.0 | 52 | 83 | 72.0 | 56.8 | 29.917 | 7.14 | 0.0 | 0 | 0.00 | 0.00 | 0.00 | 0.00 |
| 05/02/26 2:46:19 AM | 35 | 0.0 | 3.0 | 52 | 83 | 72.1 | 56.8 | 29.917 | 7.14 | 0.0 | 0 | 0.00 | 0.00 | 0.00 | 0.00 |
| 05/02/26 2:47:32 AM | 35 | 0.0 | 3.0 | 52 | 83 | 72.0 | 56.8 | 29.919 | 7.14 | 0.0 | 0 | 0.00 | 0.00 | 0.00 | 0.00 |
| 05/02/26 2:48:27 AM | 38 | 0.0 | 3.0 | 52 | 83 | 72.1 | 56.8 | 29.917 | 7.14 | 0.0 | 0 | 0.00 | 0.00 | 0.00 | 0.00 |
| 05/02/26 2:49:19 AM | 32 | 0.0 | 3.0 | 52 | 83 | 72.1 | 56.8 | 29.918 | 7.14 | 0.0 | 0 | 0.00 | 0.00 | 0.00 | 0.00 |
| 05/02/26 2:50:25 AM | 36 | 0.0 | 3.0 | 52 | 83 | 72.1 | 56.8 | 29.918 | 7.14 | 0.0 | 0 | 0.00 | 0.00 | 0.00 | 0.00 |
| 05/02/26 2:51:17 AM | 39 | 0.0 | 3.0 | 52 | 83 | 72.0 | 56.8 | 29.917 | 7.14 | 0.0 | 0 | 0.00 | 0.00 | 0.00 | 0.00 |
| 05/02/26 2:52:30 AM | 32 | 0.0 | 3.0 | 52 | 83 | 72.1 | 56.8 | 29.914 | 7.14 | 0.0 | 0 | 0.00 | 0.00 | 0.00 | 0.00 |
| 05/02/26 2:53:21 AM | 35 | 0.0 | 3.0 | 52 | 83 | 72.1 | 56.7 | 29.916 | 7.14 | 0.0 | 0 | 0.00 | 0.00 | 0.00 | 0.00 |
| 05/02/26 2:54:34 AM | 38 | 0.0 | 3.0 | 52 | 83 | 72.1 | 56.6 | 29.915 | 7.14 | 0.0 | 0 | 0.00 | 0.00 | 0.00 | 0.00 |
| 05/02/26 2:55:23 AM | 34 | 3.0 | 3.0 | 52 | 83 | 72.1 | 56.6 | 29.915 | 7.14 | 0.0 | 0 | 0.00 | 0.00 | 0.00 | 0.00 |
| 05/02/26 2:56:36 AM | 38 | 2.0 | 3.0 | 52 | 83 | 72.0 | 56.5 | 29.915 | 7.14 | 0.0 | 0 | 0.00 | 0.00 | 0.00 | 0.00 |
| 05/02/26 2:57:27 AM | 38 | 2.0 | 3.0 | 52 | 83 | 72.0 | 56.5 | 29.914 | 7.14 | 0.0 | 0 | 0.00 | 0.00 | 0.00 | 0.00 |
| 05/02/26 2:58:19 AM | 38 | 2.0 | 3.0 | 52 | 83 | 72.0 | 56.4 | 29.915 | 7.14 | 0.0 | 0 | 0.00 | 0.00 | 0.00 | 0.00 |
| 05/02/26 2:59:35 AM | 36 | 2.0 | 3.0 | 52 | 83 | 72.0 | 56.4 | 29.914 | 7.14 | 0.0 | 0 | 0.00 | 0.00 | 0.00 | 0.00 |
| 05/02/26 3:00:23 AM | 37 | 2.0 | 3.0 | 52 | 83 | 72.0 | 56.3 | 29.913 | 7.14 | 0.0 | 0 | 0.00 | 0.00 | 0.00 | 0.00 |
| 05/02/26 3:01:36 AM | 36 | 2.0 | 3.0 | 52 | 83 | 72.0 | 56.3 | 29.915 | 7.14 | 0.0 | 0 | 0.00 | 0.00 | 0.00 | 0.00 |
| 05/02/26 3:02:28 AM | 34 | 3.0 | 3.0 | 52 | 83 | 72.0 | 56.3 | 29.913 | 7.14 | 0.0 | 0 | 0.00 | 0.00 | 0.00 | 0.00 |
| 05/02/26 3:03:19 AM | 36 | 2.0 | 3.0 | 52 | 83 | 71.9 | 56.3 | 29.912 | 7.14 | 0.0 | 0 | 0.00 | 0.00 | 0.00 | 0.00 |
| 05/02/26 3:04:32 AM | 38 | 2.0 | 3.0 | 52 | 83 | 72.0 | 56.2 | 29.912 | 7.14 | 0.0 | 0 | 0.00 | 0.00 | 0.00 | 0.00 |
| 05/02/26 3:05:24 AM | 36 | 1.0 | 3.0 | 52 | 83 | 72.0 | 56.2 | 29.913 | 7.14 | 0.0 | 0 | 0.00 | 0.00 | 0.00 | 0.00 |
| 05/02/26 3:06:30 AM | 37 | 1.0 | 3.0 | 52 | 83 | 71.9 | 56.2 | 29.911 | 7.14 | 0.0 | 0 | 0.00 | 0.00 | 0.00 | 0.00 |
| 05/02/26 3:07:25 AM | 37 | 1.0 | 3.0 | 52 | 83 | 71.9 | 56.2 | 29.911 | 7.14 | 0.0 | 0 | 0.00 | 0.00 | 0.00 | 0.00 |
| 05/02/26 3:08:35 AM | 32 | 1.0 | 3.0 | 52 | 83 | 71.9 | 56.1 | 29.912 | 7.14 | 0.0 | 0 | 0.00 | 0.00 | 0.00 | 0.00 |
| 05/02/26 3:09:26 AM | 37 | 2.0 | 3.0 | 52 | 83 | 71.9 | 56.1 | 29.912 | 7.14 | 0.0 | 0 | 0.00 | 0.00 | 0.00 | 0.00 |
| 05/02/26 3:10:18 AM | 36 | 1.0 | 3.0 | 52 | 84 | 71.9 | 56.1 | 29.913 | 7.14 | 0.0 | 0 | 0.00 | 0.00 | 0.00 | 0.00 |
| 05/02/26 3:11:28 AM | 35 | 0.0 | 3.0 | 52 | 84 | 71.9 | 56.1 | 29.915 | 7.14 | 0.0 | 0 | 0.00 | 0.00 | 0.00 | 0.00 |
| 05/02/26 3:12:19 AM | 38 | 1.0 | 3.0 | 52 | 84 | 71.9 | 56.1 | 29.913 | 7.14 | 0.0 | 0 | 0.00 | 0.00 | 0.00 | 0.00 |
| 05/02/26 3:13:32 AM | 37 | 1.0 | 3.0 | 52 | 84 | 71.9 | 56.1 | 29.913 | 7.14 | 0.0 | 0 | 0.00 | 0.00 | 0.00 | 0.00 |
| 05/02/26 3:14:24 AM | 34 | 2.0 | 3.0 | 52 | 84 | 71.9 | 56.1 | 29.914 | 7.14 | 0.0 | 0 | 0.00 | 0.00 | 0.00 | 0.00 |
| 05/02/26 3:15:18 AM | 36 | 1.0 | 3.0 | 52 | 84 | 71.9 | 56.1 | 29.913 | 7.14 | 0.0 | 0 | 0.00 | 0.00 | 0.00 | 0.00 |
| 05/02/26 3:16:25 AM | 32 | 1.0 | 3.0 | 52 | 84 | 71.8 | 56.0 | 29.913 | 7.14 | 0.0 | 0 | 0.00 | 0.00 | 0.00 | 0.00 |
| 05/02/26 3:17:35 AM | 38 | 0.0 | 3.0 | 52 | 84 | 71.8 | 56.0 | 29.914 | 7.14 | 0.0 | 0 | 0.00 | 0.00 | 0.00 | 0.00 |
| 05/02/26 3:18:30 AM | 37 | 1.0 | 3.0 | 52 | 84 | 71.8 | 55.9 | 29.914 | 7.14 | 0.0 | 0 | 0.00 | 0.00 | 0.00 | 0.00 |
| 05/02/26 3:19:21 AM | 36 | 1.0 | 3.0 | 52 | 84 | 71.8 | 55.9 | 29.914 | 7.14 | 0.0 | 0 | 0.00 | 0.00 | 0.00 | 0.00 |
| 05/02/26 3:20:34 AM | 32 | 0.0 | 3.0 | 52 | 83 | 71.8 | 55.9 | 29.918 | 7.14 | 0.0 | 0 | 0.00 | 0.00 | 0.00 | 0.00 |
| 05/02/26 3:21:29 AM | 32 | 0.0 | 3.0 | 52 | 83 | 71.8 | 55.8 | 29.915 | 7.14 | 0.0 | 0 | 0.00 | 0.00 | 0.00 | 0.00 |
| 05/02/26 3:22:17 AM | 35 | 0.0 | 3.0 | 52 | 83 | 71.8 | 55.8 | 29.917 | 7.14 | 0.0 | 0 | 0.00 | 0.00 | 0.00 | 0.00 |
| 05/02/26 3:23:30 AM | 37 | 0.0 | 3.0 | 52 | 83 | 71.8 | 55.8 | 29.914 | 7.14 | 0.0 | 0 | 0.00 | 0.00 | 0.00 | 0.00 |
| 05/02/26 3:24:22 AM | 29 | 0.0 | 3.0 | 52 | 83 | 71.8 | 55.7 | 29.916 | 7.14 | 0.0 | 0 | 0.00 | 0.00 | 0.00 | 0.00 |
| 05/02/26 3:25:35 AM | 36 | 0.0 | 3.0 | 52 | 83 | 71.8 | 55.7 | 29.915 | 7.14 | 0.0 | 0 | 0.00 | 0.00 | 0.00 | 0.00 |
| 05/02/26 3:26:26 AM | 34 | 0.0 | 3.0 | 52 | 83 | 71.8 | 55.5 | 29.916 | 7.14 | 0.0 | 0 | 0.00 | 0.00 | 0.00 | 0.00 |
| 05/02/26 3:27:36 AM | 36 | 0.0 | 3.0 | 52 | 83 | 71.8 | 55.5 | 29.917 | 7.14 | 0.0 | 0 | 0.00 | 0.00 | 0.00 | 0.00 |
| 05/02/26 3:28:28 AM | 36 | 0.0 | 3.0 | 52 | 83 | 71.8 | 55.4 | 29.915 | 7.14 | 0.0 | 0 | 0.00 | 0.00 | 0.00 | 0.00 |
| 05/02/26 3:29:19 AM | 34 | 0.0 | 3.0 | 52 | 83 | 71.8 | 55.4 | 29.916 | 7.14 | 0.0 | 0 | 0.00 | 0.00 | 0.00 | 0.00 |
| 05/02/26 3:30:32 AM | 35 | 0.0 | 3.0 | 52 | 83 | 71.7 | 55.4 | 29.916 | 7.14 | 0.0 | 0 | 0.00 | 0.00 | 0.00 | 0.00 |
| 05/02/26 3:31:24 AM | 32 | 0.0 | 3.0 | 52 | 84 | 71.7 | 55.4 | 29.916 | 7.14 | 0.0 | 0 | 0.00 | 0.00 | 0.00 | 0.00 |
| 05/02/26 3:32:31 AM | 31 | 0.0 | 3.0 | 52 | 84 | 71.8 | 55.4 | 29.917 | 7.14 | 0.0 | 0 | 0.00 | 0.00 | 0.00 | 0.00 |
| 05/02/26 3:33:22 AM | 37 | 0.0 | 3.0 | 52 | 84 | 71.7 | 55.3 | 29.917 | 7.14 | 0.0 | 0 | 0.00 | 0.00 | 0.00 | 0.00 |
| 05/02/26 3:34:35 AM | 36 | 0.0 | 3.0 | 52 | 84 | 71.7 | 55.4 | 29.918 | 7.14 | 0.0 | 0 | 0.00 | 0.00 | 0.00 | 0.00 |
| 05/02/26 3:35:30 AM | 36 | 0.0 | 3.0 | 52 | 84 | 71.7 | 55.4 | 29.915 | 7.14 | 0.0 | 0 | 0.00 | 0.00 | 0.00 | 0.00 |
| 05/02/26 3:36:21 AM | 37 | 0.0 | 3.0 | 52 | 84 | 71.7 | 55.4 | 29.915 | 7.14 | 0.0 | 0 | 0.00 | 0.00 | 0.00 | 0.00 |
| 05/02/26 3:37:34 AM | 36 | 0.0 | 3.0 | 52 | 84 | 71.8 | 55.3 | 29.915 | 7.14 | 0.0 | 0 | 0.00 | 0.00 | 0.00 | 0.00 |
| 05/02/26 3:38:23 AM | 35 | 0.0 | 3.0 | 52 | 84 | 71.7 | 55.3 | 29.916 | 7.14 | 0.0 | 0 | 0.00 | 0.00 | 0.00 | 0.00 |
| 05/02/26 3:39:33 AM | 38 | 0.0 | 3.0 | 52 | 84 | 71.7 | 55.3 | 29.914 | 7.14 | 0.0 | 0 | 0.00 | 0.00 | 0.00 | 0.00 |
| 05/02/26 3:40:27 AM | 38 | 0.0 | 3.0 | 52 | 84 | 71.7 | 55.3 | 29.916 | 7.14 | 0.0 | 0 | 0.00 | 0.00 | 0.00 | 0.00 |
| 05/02/26 3:41:19 AM | 36 | 0.0 | 3.0 | 52 | 84 | 71.6 | 55.2 | 29.917 | 7.14 | 0.0 | 0 | 0.00 | 0.00 | 0.00 | 0.00 |
| 05/02/26 3:42:29 AM | 36 | 0.0 | 3.0 | 52 | 84 | 71.7 | 55.2 | 29.915 | 7.14 | 0.0 | 0 | 0.00 | 0.00 | 0.00 | 0.00 |
| 05/02/26 3:43:20 AM | 32 | 0.0 | 3.0 | 52 | 84 | 71.6 | 55.2 | 29.916 | 7.14 | 0.0 | 0 | 0.00 | 0.00 | 0.00 | 0.00 |
| 05/02/26 3:44:33 AM | 32 | 0.0 | 3.0 | 52 | 84 | 71.7 | 55.2 | 29.914 | 7.14 | 0.0 | 0 | 0.00 | 0.00 | 0.00 | 0.00 |
| 05/02/26 3:45:25 AM | 36 | 0.0 | 3.0 | 52 | 84 | 71.6 | 55.2 | 29.915 | 7.14 | 0.0 | 0 | 0.00 | 0.00 | 0.00 | 0.00 |
| 05/02/26 3:46:34 AM | 36 | 0.0 | 3.0 | 52 | 84 | 71.7 | 55.2 | 29.916 | 7.14 | 0.0 | 0 | 0.00 | 0.00 | 0.00 | 0.00 |
| 05/02/26 3:47:29 AM | 38 | 0.0 | 3.0 | 52 | 84 | 71.6 | 55.1 | 29.916 | 7.14 | 0.0 | 0 | 0.00 | 0.00 | 0.00 | 0.00 |
| 05/02/26 3:48:21 AM | 34 | 0.0 | 3.0 | 52 | 84 | 71.7 | 55.1 | 29.917 | 7.14 | 0.0 | 0 | 0.00 | 0.00 | 0.00 | 0.00 |
| 05/02/26 3:49:28 AM | 36 | 0.0 | 3.0 | 52 | 84 | 71.6 | 55.1 | 29.914 | 7.14 | 0.0 | 0 | 0.00 | 0.00 | 0.00 | 0.00 |
| 05/02/26 3:50:22 AM | 34 | 0.0 | 3.0 | 52 | 84 | 71.7 | 55.1 | 29.917 | 7.14 | 0.0 | 0 | 0.00 | 0.00 | 0.00 | 0.00 |
| 05/02/26 3:51:32 AM | 36 | 0.0 | 3.0 | 52 | 84 | 71.7 | 55.1 | 29.916 | 7.14 | 0.0 | 0 | 0.00 | 0.00 | 0.00 | 0.00 |
| 05/02/26 3:52:27 AM | 38 | 0.0 | 3.0 | 52 | 84 | 71.7 | 55.0 | 29.916 | 7.14 | 0.0 | 0 | 0.00 | 0.00 | 0.00 | 0.00 |
| 05/02/26 3:53:18 AM | 38 | 0.0 | 3.0 | 52 | 84 | 71.7 | 55.0 | 29.915 | 7.14 | 0.0 | 0 | 0.00 | 0.00 | 0.00 | 0.00 |
| 05/02/26 3:54:25 AM | 35 | 0.0 | 3.0 | 52 | 84 | 71.7 | 55.0 | 29.915 | 7.14 | 0.0 | 0 | 0.00 | 0.00 | 0.00 | 0.00 |
| 05/02/26 3:55:20 AM | 37 | 0.0 | 3.0 | 52 | 84 | 71.6 | 55.0 | 29.918 | 7.14 | 0.0 | 0 | 0.00 | 0.00 | 0.00 | 0.00 |
| 05/02/26 3:56:33 AM | 34 | 0.0 | 3.0 | 52 | 85 | 71.6 | 55.0 | 29.917 | 7.14 | 0.0 | 0 | 0.00 | 0.00 | 0.00 | 0.00 |
| 05/02/26 3:57:24 AM | 34 | 0.0 | 3.0 | 52 | 85 | 71.6 | 55.0 | 29.916 | 7.14 | 0.0 | 0 | 0.00 | 0.00 | 0.00 | 0.00 |
| 05/02/26 3:58:16 AM | 35 | 0.0 | 3.0 | 52 | 85 | 71.7 | 55.0 | 29.918 | 7.14 | 0.0 | 0 | 0.00 | 0.00 | 0.00 | 0.00 |
| 05/02/26 3:59:26 AM | 32 | 0.0 | 3.0 | 52 | 85 | 71.6 | 54.9 | 29.917 | 7.14 | 0.0 | 0 | 0.00 | 0.00 | 0.00 | 0.00 |
| 05/02/26 4:00:17 AM | 34 | 0.0 | 3.0 | 52 | 85 | 71.6 | 54.9 | 29.917 | 7.14 | 0.0 | 0 | 0.00 | 0.00 | 0.00 | 0.00 |
| 05/02/26 4:01:30 AM | 37 | 0.0 | 3.0 | 52 | 85 | 71.6 | 54.9 | 29.918 | 7.14 | 0.0 | 0 | 0.00 | 0.00 | 0.00 | 0.00 |
| 05/02/26 4:02:22 AM | 38 | 0.0 | 3.0 | 52 | 85 | 71.6 | 54.9 | 29.917 | 7.14 | 0.0 | 0 | 0.00 | 0.00 | 0.00 | 0.00 |
| 05/02/26 4:03:35 AM | 32 | 0.0 | 3.0 | 52 | 85 | 71.6 | 54.9 | 29.917 | 7.14 | 0.0 | 0 | 0.00 | 0.00 | 0.00 | 0.00 |
| 05/02/26 4:04:29 AM | 32 | 0.0 | 3.0 | 52 | 85 | 71.6 | 54.9 | 29.920 | 7.14 | 0.0 | 0 | 0.00 | 0.00 | 0.00 | 0.00 |
| 05/02/26 4:05:36 AM | 36 | 0.0 | 3.0 | 52 | 85 | 71.6 | 54.9 | 29.917 | 7.14 | 0.0 | 0 | 0.00 | 0.00 | 0.00 | 0.00 |
| 05/02/26 4:06:28 AM | 37 | 0.0 | 3.0 | 52 | 85 | 71.6 | 54.9 | 29.917 | 7.14 | 0.0 | 0 | 0.00 | 0.00 | 0.00 | 0.00 |
| 05/02/26 4:07:22 AM | 38 | 0.0 | 3.0 | 52 | 85 | 71.6 | 54.9 | 29.917 | 7.14 | 0.0 | 0 | 0.00 | 0.00 | 0.00 | 0.00 |
| 05/02/26 4:08:44 AM | 36 | 0.0 | 3.0 | 52 | 85 | 71.6 | 54.9 | 29.917 | 7.14 | 0.0 | 0 | 0.00 | 0.00 | 0.00 | 0.00 |
| 05/02/26 4:09:18 AM | 36 | 0.0 | 3.0 | 52 | 85 | 71.6 | 54.9 | 29.917 | 7.14 | 0.0 | 0 | 0.00 | 0.00 | 0.00 | 0.00 |
| 05/02/26 4:10:25 AM | 36 | 0.0 | 3.0 | 52 | 85 | 71.6 | 54.9 | 29.917 | 7.14 | 0.0 | 0 | 0.00 | 0.00 | 0.00 | 0.00 |
| 05/02/26 4:11:19 AM | 38 | 0.0 | 3.0 | 52 | 85 | 71.6 | 54.8 | 29.915 | 7.14 | 0.0 | 0 | 0.00 | 0.00 | 0.00 | 0.00 |
| 05/02/26 4:12:29 AM | 37 | 0.0 | 3.0 | 52 | 85 | 71.6 | 54.8 | 29.918 | 7.14 | 0.0 | 0 | 0.00 | 0.00 | 0.00 | 0.00 |
| 05/02/26 4:13:24 AM | 36 | 0.0 | 3.0 | 52 | 85 | 71.6 | 54.8 | 29.914 | 7.14 | 0.0 | 0 | 0.00 | 0.00 | 0.00 | 0.00 |
| 05/02/26 4:14:37 AM | 31 | 0.0 | 3.0 | 52 | 85 | 71.6 | 54.7 | 29.915 | 7.14 | 0.0 | 0 | 0.00 | 0.00 | 0.00 | 0.00 |
| 05/02/26 4:15:28 AM | 37 | 0.0 | 3.0 | 52 | 85 | 71.6 | 54.6 | 29.917 | 7.14 | 0.0 | 0 | 0.00 | 0.00 | 0.00 | 0.00 |
| 05/02/26 4:16:35 AM | 35 | 0.0 | 3.0 | 52 | 85 | 71.6 | 54.6 | 29.915 | 7.14 | 0.0 | 0 | 0.00 | 0.00 | 0.00 | 0.00 |
| 05/02/26 4:17:27 AM | 37 | 0.0 | 3.0 | 52 | 85 | 71.6 | 54.5 | 29.914 | 7.14 | 0.0 | 0 | 0.00 | 0.00 | 0.00 | 0.00 |
| 05/02/26 4:18:19 AM | 36 | 0.0 | 3.0 | 52 | 85 | 71.6 | 54.4 | 29.914 | 7.14 | 0.0 | 0 | 0.00 | 0.00 | 0.00 | 0.00 |
| 05/02/26 4:19:31 AM | 35 | 0.0 | 3.0 | 52 | 85 | 71.6 | 54.4 | 29.914 | 7.14 | 0.0 | 0 | 0.00 | 0.00 | 0.00 | 0.00 |
| 05/02/26 4:20:23 AM | 34 | 0.0 | 3.0 | 52 | 85 | 71.6 | 54.3 | 29.916 | 7.14 | 0.0 | 0 | 0.00 | 0.00 | 0.00 | 0.00 |
| 05/02/26 4:21:33 AM | 36 | 0.0 | 3.0 | 52 | 85 | 71.6 | 54.3 | 29.920 | 7.14 | 0.0 | 0 | 0.00 | 0.00 | 0.00 | 0.00 |
| 05/02/26 4:22:24 AM | 36 | 0.0 | 3.0 | 52 | 85 | 71.6 | 54.3 | 29.917 | 7.14 | 0.0 | 0 | 0.00 | 0.00 | 0.00 | 0.00 |
| 05/02/26 4:23:16 AM | 37 | 0.0 | 3.0 | 52 | 85 | 71.5 | 54.2 | 29.918 | 7.14 | 0.0 | 0 | 0.00 | 0.00 | 0.00 | 0.00 |
| 05/02/26 4:24:29 AM | 37 | 0.0 | 3.0 | 52 | 85 | 71.5 | 54.2 | 29.917 | 7.14 | 0.0 | 0 | 0.00 | 0.00 | 0.00 | 0.00 |
| 05/02/26 4:25:21 AM | 35 | 0.0 | 3.0 | 52 | 85 | 71.5 | 54.2 | 29.916 | 7.14 | 0.0 | 0 | 0.00 | 0.00 | 0.00 | 0.00 |
| 05/02/26 4:26:27 AM | 37 | 0.0 | 3.0 | 52 | 85 | 71.6 | 54.2 | 29.918 | 7.14 | 0.0 | 0 | 0.00 | 0.00 | 0.00 | 0.00 |
| 05/02/26 4:27:19 AM | 36 | 0.0 | 3.0 | 52 | 85 | 71.5 | 54.1 | 29.918 | 7.14 | 0.0 | 0 | 0.00 | 0.00 | 0.00 | 0.00 |
| 05/02/26 4:28:32 AM | 34 | 0.0 | 3.0 | 52 | 85 | 71.5 | 54.1 | 29.917 | 7.14 | 0.0 | 0 | 0.00 | 0.00 | 0.00 | 0.00 |
| 05/02/26 4:29:24 AM | 34 | 0.0 | 3.0 | 52 | 85 | 71.5 | 54.1 | 29.918 | 7.14 | 0.0 | 0 | 0.00 | 0.00 | 0.00 | 0.00 |
| 05/02/26 4:30:36 AM | 38 | 0.0 | 3.0 | 52 | 85 | 71.5 | 54.0 | 29.918 | 7.14 | 0.0 | 0 | 0.00 | 0.00 | 0.00 | 0.00 |
| 05/02/26 4:31:28 AM | 34 | 0.0 | 3.0 | 52 | 85 | 71.5 | 54.0 | 29.917 | 7.14 | 0.0 | 0 | 0.00 | 0.00 | 0.00 | 0.00 |
| 05/02/26 4:32:35 AM | 31 | 0.0 | 3.0 | 52 | 85 | 71.5 | 53.9 | 29.916 | 7.14 | 0.0 | 0 | 0.00 | 0.00 | 0.00 | 0.00 |
| 05/02/26 4:33:27 AM | 36 | 0.0 | 3.0 | 52 | 85 | 71.5 | 53.9 | 29.916 | 7.14 | 0.0 | 0 | 0.00 | 0.00 | 0.00 | 0.00 |
| 05/02/26 4:34:18 AM | 34 | 0.0 | 3.0 | 52 | 85 | 71.5 | 53.9 | 29.914 | 7.14 | 0.0 | 0 | 0.00 | 0.00 | 0.00 | 0.00 |
| 05/02/26 4:35:31 AM | 32 | 0.0 | 3.0 | 52 | 85 | 71.5 | 53.9 | 29.915 | 7.14 | 0.0 | 0 | 0.00 | 0.00 | 0.00 | 0.00 |
| 05/02/26 4:36:23 AM | 38 | 0.0 | 3.0 | 52 | 85 | 71.5 | 53.9 | 29.917 | 7.14 | 0.0 | 0 | 0.00 | 0.00 | 0.00 | 0.00 |
| 05/02/26 4:37:33 AM | 37 | 0.0 | 3.0 | 52 | 85 | 71.5 | 53.9 | 29.914 | 7.14 | 0.0 | 0 | 0.00 | 0.00 | 0.00 | 0.00 |
| 05/02/26 4:38:24 AM | 37 | 0.0 | 3.0 | 52 | 85 | 71.5 | 53.9 | 29.916 | 7.14 | 0.0 | 0 | 0.00 | 0.00 | 0.00 | 0.00 |
| 05/02/26 4:39:37 AM | 36 | 0.0 | 3.0 | 52 | 85 | 71.5 | 53.9 | 29.916 | 7.14 | 0.0 | 0 | 0.00 | 0.00 | 0.00 | 0.00 |
| 05/02/26 4:40:26 AM | 34 | 0.0 | 3.0 | 52 | 85 | 71.5 | 53.9 | 29.918 | 7.14 | 0.0 | 0 | 0.00 | 0.00 | 0.00 | 0.00 |
| 05/02/26 4:41:21 AM | 36 | 0.0 | 3.0 | 52 | 85 | 71.5 | 53.9 | 29.917 | 7.14 | 0.0 | 0 | 0.00 | 0.00 | 0.00 | 0.00 |
| 05/02/26 4:42:31 AM | 32 | 0.0 | 3.0 | 52 | 85 | 71.5 | 53.9 | 29.920 | 7.14 | 0.0 | 0 | 0.00 | 0.00 | 0.00 | 0.00 |
| 05/02/26 4:43:22 AM | 35 | 0.0 | 3.0 | 52 | 85 | 71.5 | 53.9 | 29.916 | 7.14 | 0.0 | 0 | 0.00 | 0.00 | 0.00 | 0.00 |
| 05/02/26 4:44:35 AM | 36 | 0.0 | 3.0 | 52 | 85 | 71.5 | 53.9 | 29.918 | 7.14 | 0.0 | 0 | 0.00 | 0.00 | 0.00 | 0.00 |
| 05/02/26 4:45:48 AM | 36 | 0.0 | 3.0 | 52 | 85 | 71.5 | 53.9 | 29.917 | 7.14 | 0.0 | 0 | 0.00 | 0.00 | 0.00 | 0.00 |
| 05/02/26 4:46:21 AM | 36 | 0.0 | 3.0 | 52 | 85 | 71.5 | 53.9 | 29.918 | 7.14 | 0.0 | 0 | 0.00 | 0.00 | 0.00 | 0.00 |
| 05/02/26 4:47:31 AM | 36 | 0.0 | 3.0 | 52 | 85 | 71.5 | 53.9 | 29.917 | 7.14 | 0.0 | 0 | 0.00 | 0.00 | 0.00 | 0.00 |
| 05/02/26 4:48:20 AM | 34 | 0.0 | 3.0 | 52 | 85 | 71.5 | 53.9 | 29.920 | 7.14 | 0.0 | 0 | 0.00 | 0.00 | 0.00 | 0.00 |
| 05/02/26 4:49:33 AM | 37 | 0.0 | 3.0 | 52 | 85 | 71.5 | 53.8 | 29.918 | 7.14 | 0.0 | 0 | 0.00 | 0.00 | 0.00 | 0.00 |
| 05/02/26 4:50:24 AM | 36 | 0.0 | 3.0 | 52 | 85 | 71.4 | 53.8 | 29.915 | 7.14 | 0.0 | 0 | 0.00 | 0.00 | 0.00 | 0.00 |
| 05/02/26 4:51:16 AM | 37 | 0.0 | 3.0 | 52 | 85 | 71.5 | 53.8 | 29.915 | 7.14 | 0.0 | 0 | 0.00 | 0.00 | 0.00 | 0.00 |
| 05/02/26 4:52:29 AM | 34 | 0.0 | 3.0 | 52 | 86 | 71.4 | 53.9 | 29.917 | 7.14 | 0.0 | 0 | 0.00 | 0.00 | 0.00 | 0.00 |
| 05/02/26 4:53:21 AM | 37 | 0.0 | 3.0 | 52 | 86 | 71.4 | 53.9 | 29.917 | 7.14 | 0.0 | 0 | 0.00 | 0.00 | 0.00 | 0.00 |
| 05/02/26 4:54:30 AM | 38 | 0.0 | 3.0 | 52 | 85 | 71.4 | 53.9 | 29.915 | 7.14 | 0.0 | 0 | 0.00 | 0.00 | 0.00 | 0.00 |
| 05/02/26 4:55:22 AM | 34 | 0.0 | 3.0 | 52 | 86 | 71.5 | 53.9 | 29.916 | 7.14 | 0.0 | 0 | 0.00 | 0.00 | 0.00 | 0.00 |
| 05/02/26 4:56:35 AM | 36 | 0.0 | 3.0 | 52 | 86 | 71.5 | 53.9 | 29.918 | 7.14 | 0.0 | 0 | 0.00 | 0.00 | 0.00 | 0.00 |
| 05/02/26 4:57:27 AM | 34 | 0.0 | 3.0 | 52 | 85 | 71.4 | 53.9 | 29.914 | 7.14 | 0.0 | 0 | 0.00 | 0.00 | 0.00 | 0.00 |
| 05/02/26 4:58:18 AM | 36 | 0.0 | 3.0 | 52 | 85 | 71.4 | 53.9 | 29.920 | 7.14 | 0.0 | 0 | 0.00 | 0.00 | 0.00 | 0.00 |
| 05/02/26 4:59:25 AM | 37 | 0.0 | 3.0 | 52 | 85 | 71.4 | 53.8 | 29.918 | 7.14 | 0.0 | 0 | 0.00 | 0.00 | 0.00 | 0.00 |
| 05/02/26 5:00:20 AM | 36 | 0.0 | 3.0 | 52 | 85 | 71.4 | 53.8 | 29.917 | 7.14 | 0.0 | 0 | 0.00 | 0.00 | 0.00 | 0.00 |
| 05/02/26 5:01:30 AM | 36 | 0.0 | 3.0 | 52 | 85 | 71.4 | 53.8 | 29.917 | 7.14 | 0.0 | 0 | 0.00 | 0.00 | 0.00 | 0.00 |
| 05/02/26 5:02:21 AM | 37 | 0.0 | 3.0 | 52 | 85 | 71.5 | 53.7 | 29.917 | 7.14 | 0.0 | 0 | 0.00 | 0.00 | 0.00 | 0.00 |
| 05/02/26 5:03:34 AM | 35 | 0.0 | 3.0 | 52 | 85 | 71.4 | 53.7 | 29.918 | 7.14 | 0.0 | 0 | 0.00 | 0.00 | 0.00 | 0.00 |
| 05/02/26 5:04:23 AM | 34 | 0.0 | 3.0 | 52 | 85 | 71.3 | 53.7 | 29.915 | 7.14 | 0.0 | 0 | 0.00 | 0.00 | 0.00 | 0.00 |
| 05/02/26 5:05:33 AM | 32 | 0.0 | 3.0 | 52 | 85 | 71.3 | 53.6 | 29.916 | 7.14 | 0.0 | 0 | 0.00 | 0.00 | 0.00 | 0.00 |
| 05/02/26 5:06:24 AM | 32 | 0.0 | 3.0 | 52 | 85 | 71.1 | 53.6 | 29.917 | 7.14 | 0.0 | 0 | 0.00 | 0.00 | 0.00 | 0.00 |
| 05/02/26 5:07:19 AM | 35 | 0.0 | 3.0 | 52 | 86 | 71.0 | 53.6 | 29.918 | 7.14 | 0.0 | 0 | 0.00 | 0.00 | 0.00 | 0.00 |
| 05/02/26 5:08:29 AM | 35 | 0.0 | 3.0 | 52 | 86 | 70.8 | 53.6 | 29.919 | 7.14 | 0.0 | 0 | 0.00 | 0.00 | 0.00 | 0.00 |
| 05/02/26 5:09:24 AM | 32 | 0.0 | 3.0 | 52 | 86 | 70.7 | 53.6 | 29.916 | 7.14 | 0.0 | 0 | 0.00 | 0.00 | 0.00 | 0.00 |
| 05/02/26 5:10:31 AM | 31 | 0.0 | 3.0 | 52 | 86 | 70.5 | 53.6 | 29.916 | 7.14 | 0.0 | 0 | 0.00 | 0.00 | 0.00 | 0.00 |
| 05/02/26 5:11:22 AM | 32 | 0.0 | 3.0 | 52 | 86 | 70.3 | 53.6 | 29.918 | 7.14 | 0.0 | 0 | 0.00 | 0.00 | 0.00 | 0.00 |
| 05/02/26 5:12:35 AM | 34 | 0.0 | 3.0 | 52 | 86 | 70.1 | 53.6 | 29.917 | 7.14 | 0.0 | 0 | 0.00 | 0.00 | 0.00 | 0.00 |
| 05/02/26 5:13:27 AM | 38 | 0.0 | 3.0 | 52 | 86 | 69.9 | 53.7 | 29.920 | 7.14 | 0.0 | 0 | 0.00 | 0.00 | 0.00 | 0.00 |
| 05/02/26 5:14:19 AM | 38 | 0.0 | 3.0 | 52 | 86 | 69.8 | 53.7 | 29.918 | 7.14 | 0.0 | 0 | 0.00 | 0.00 | 0.00 | 0.00 |
| 05/02/26 5:15:28 AM | 36 | 0.0 | 3.0 | 52 | 86 | 69.6 | 53.7 | 29.917 | 7.14 | 0.0 | 0 | 0.00 | 0.00 | 0.00 | 0.00 |
| 05/02/26 5:16:20 AM | 34 | 0.0 | 3.0 | 52 | 86 | 69.5 | 53.7 | 29.918 | 7.14 | 0.0 | 0 | 0.00 | 0.00 | 0.00 | 0.00 |
| 05/02/26 5:17:33 AM | 36 | 0.0 | 3.0 | 52 | 86 | 69.4 | 53.7 | 29.918 | 7.14 | 0.0 | 0 | 0.00 | 0.00 | 0.00 | 0.00 |
| 05/02/26 5:18:25 AM | 36 | 0.0 | 3.0 | 52 | 86 | 69.2 | 53.7 | 29.918 | 7.14 | 0.0 | 0 | 0.00 | 0.00 | 0.00 | 0.00 |
| 05/02/26 5:19:17 AM | 34 | 0.0 | 3.0 | 52 | 86 | 69.1 | 53.7 | 29.918 | 7.14 | 0.0 | 0 | 0.00 | 0.00 | 0.00 | 0.00 |
| 05/02/26 5:20:26 AM | 37 | 0.0 | 3.0 | 52 | 86 | 69.0 | 53.7 | 29.920 | 7.14 | 0.0 | 0 | 0.00 | 0.00 | 0.00 | 0.00 |
| 05/02/26 5:21:18 AM | 38 | 0.0 | 3.0 | 52 | 86 | 68.9 | 53.7 | 29.918 | 7.14 | 0.0 | 0 | 0.00 | 0.00 | 0.00 | 0.00 |
| 05/02/26 5:22:31 AM | 38 | 0.0 | 3.0 | 52 | 86 | 68.8 | 53.8 | 29.921 | 7.14 | 0.0 | 0 | 0.00 | 0.00 | 0.00 | 0.00 |
| 05/02/26 5:23:26 AM | 35 | 0.0 | 3.0 | 52 | 86 | 68.7 | 53.7 | 29.922 | 7.14 | 0.0 | 0 | 0.00 | 0.00 | 0.00 | 0.00 |
| 05/02/26 5:24:35 AM | 36 | 0.0 | 3.0 | 52 | 86 | 68.7 | 53.7 | 29.921 | 7.14 | 0.0 | 0 | 0.00 | 0.00 | 0.00 | 0.00 |
| 05/02/26 5:25:30 AM | 38 | 0.0 | 3.0 | 52 | 86 | 68.6 | 53.7 | 29.921 | 7.14 | 0.0 | 0 | 0.00 | 0.00 | 0.00 | 0.00 |
| 05/02/26 5:26:16 AM | 36 | 0.0 | 3.0 | 52 | 86 | 68.5 | 53.7 | 29.922 | 7.14 | 0.0 | 0 | 0.00 | 0.00 | 0.00 | 0.00 |
| 05/02/26 5:27:29 AM | 36 | 0.0 | 3.0 | 52 | 86 | 68.5 | 53.7 | 29.924 | 7.14 | 0.0 | 0 | 0.00 | 0.00 | 0.00 | 0.00 |
| 05/02/26 5:28:23 AM | 34 | 0.0 | 3.0 | 52 | 86 | 68.3 | 53.7 | 29.924 | 7.14 | 0.0 | 0 | 0.00 | 0.00 | 0.00 | 0.00 |
| 05/02/26 5:29:33 AM | 36 | 2.0 | 3.0 | 52 | 86 | 68.3 | 53.7 | 29.924 | 7.14 | 0.0 | 0 | 0.00 | 0.00 | 0.00 | 0.00 |
| 05/02/26 5:30:28 AM | 36 | 3.0 | 3.0 | 52 | 86 | 68.2 | 53.7 | 29.926 | 7.14 | 0.0 | 0 | 0.00 | 0.00 | 0.00 | 0.00 |
| 05/02/26 5:31:35 AM | 34 | 3.0 | 3.0 | 52 | 86 | 68.1 | 53.6 | 29.928 | 7.14 | 0.0 | 0 | 0.00 | 0.00 | 0.00 | 0.00 |
| 05/02/26 5:32:27 AM | 36 | 3.0 | 3.0 | 52 | 86 | 68.1 | 53.6 | 29.927 | 7.14 | 0.0 | 0 | 0.00 | 0.00 | 0.00 | 0.00 |
| 05/02/26 5:33:18 AM | 32 | 2.0 | 3.0 | 52 | 86 | 68.1 | 53.6 | 29.927 | 7.14 | 0.0 | 0 | 0.00 | 0.00 | 0.00 | 0.00 |
| 05/02/26 5:34:31 AM | 34 | 3.0 | 3.0 | 52 | 86 | 68.0 | 53.5 | 29.928 | 7.14 | 0.0 | 0 | 0.00 | 0.00 | 0.00 | 0.00 |
| 05/02/26 5:35:23 AM | 37 | 1.0 | 3.0 | 52 | 86 | 67.9 | 53.5 | 29.929 | 7.14 | 0.0 | 0 | 0.00 | 0.00 | 0.00 | 0.00 |
| 05/02/26 5:36:33 AM | 36 | 3.0 | 3.0 | 52 | 86 | 67.8 | 53.4 | 29.930 | 7.14 | 0.0 | 0 | 0.00 | 0.00 | 0.00 | 0.00 |
| 05/02/26 5:37:24 AM | 37 | 2.0 | 3.0 | 52 | 86 | 67.7 | 53.3 | 29.930 | 7.14 | 0.0 | 0 | 0.00 | 0.00 | 0.00 | 0.00 |
| 05/02/26 5:38:37 AM | 37 | 2.0 | 3.0 | 52 | 86 | 67.8 | 53.3 | 29.932 | 7.14 | 0.0 | 0 | 0.00 | 0.00 | 0.00 | 0.00 |
| 05/02/26 5:39:29 AM | 30 | 2.0 | 3.0 | 53 | 86 | 67.6 | 53.3 | 29.931 | 7.14 | 0.0 | 0 | 0.00 | 0.00 | 0.00 | 0.00 |
| 05/02/26 5:40:21 AM | 35 | 1.0 | 3.0 | 53 | 86 | 67.6 | 53.2 | 29.931 | 7.14 | 0.0 | 0 | 0.00 | 0.00 | 0.00 | 0.00 |
| 05/02/26 5:41:34 AM | 38 | 2.0 | 3.0 | 53 | 86 | 67.5 | 53.2 | 29.932 | 7.14 | 0.0 | 0 | 0.00 | 0.00 | 0.00 | 0.00 |
| 05/02/26 5:42:22 AM | 36 | 0.0 | 3.0 | 53 | 86 | 67.5 | 53.2 | 29.931 | 7.14 | 0.0 | 0 | 0.00 | 0.00 | 0.00 | 0.00 |
| 05/02/26 5:43:32 AM | 38 | 1.0 | 3.0 | 53 | 86 | 67.4 | 53.2 | 29.932 | 7.14 | 0.0 | 0 | 0.00 | 0.00 | 0.00 | 0.00 |
| 05/02/26 5:44:24 AM | 36 | 1.0 | 3.0 | 53 | 86 | 67.4 | 53.2 | 29.931 | 7.14 | 0.0 | 0 | 0.00 | 0.00 | 0.00 | 0.00 |
| 05/02/26 5:45:19 AM | 36 | 0.0 | 3.0 | 53 | 86 | 67.3 | 53.2 | 29.932 | 7.14 | 0.0 | 0 | 0.00 | 0.00 | 0.00 | 0.00 |
| 05/02/26 5:46:28 AM | 38 | 0.0 | 3.0 | 53 | 86 | 67.3 | 53.2 | 29.932 | 7.14 | 0.0 | 0 | 0.00 | 0.00 | 0.00 | 0.00 |
| 05/02/26 5:47:17 AM | 35 | 0.0 | 3.0 | 53 | 86 | 67.3 | 53.2 | 29.932 | 7.14 | 0.0 | 0 | 0.00 | 0.00 | 0.00 | 0.00 |
| 05/02/26 5:48:30 AM | 38 | 0.0 | 3.0 | 53 | 86 | 67.2 | 53.1 | 29.934 | 7.14 | 0.0 | 0 | 0.00 | 0.00 | 0.00 | 0.00 |
| 05/02/26 5:49:22 AM | 31 | 0.0 | 3.0 | 53 | 86 | 67.1 | 53.1 | 29.934 | 7.14 | 0.0 | 0 | 0.00 | 0.00 | 0.00 | 0.00 |
| 05/02/26 5:50:34 AM | 38 | 0.0 | 3.0 | 53 | 86 | 67.0 | 53.1 | 29.936 | 7.14 | 0.0 | 0 | 0.00 | 0.00 | 0.00 | 0.00 |
| 05/02/26 5:51:26 AM | 32 | 0.0 | 3.0 | 53 | 86 | 67.0 | 53.1 | 29.937 | 7.14 | 0.0 | 0 | 0.00 | 0.00 | 0.00 | 0.00 |
| 05/02/26 5:52:21 AM | 36 | 0.0 | 3.0 | 53 | 86 | 66.9 | 53.1 | 29.937 | 7.14 | 0.0 | 0 | 0.00 | 0.00 | 0.00 | 0.00 |
| 05/02/26 5:53:31 AM | 38 | 0.0 | 3.0 | 53 | 86 | 66.9 | 53.1 | 29.936 | 7.14 | 0.0 | 0 | 0.00 | 0.00 | 0.00 | 0.00 |
| 05/02/26 5:54:23 AM | 38 | 0.0 | 3.0 | 53 | 86 | 66.8 | 53.1 | 29.934 | 7.14 | 0.0 | 0 | 0.00 | 0.00 | 0.00 | 0.00 |
| 05/02/26 5:55:35 AM | 38 | 0.0 | 3.0 | 53 | 86 | 66.8 | 53.1 | 29.938 | 7.14 | 0.0 | 0 | 0.00 | 0.00 | 0.00 | 0.00 |
| 05/02/26 5:56:27 AM | 38 | 0.0 | 3.0 | 54 | 86 | 66.7 | 53.2 | 29.937 | 7.14 | 0.0 | 0 | 0.00 | 0.00 | 0.00 | 0.00 |
| 05/02/26 5:57:19 AM | 38 | 0.0 | 3.0 | 54 | 86 | 66.7 | 53.2 | 29.937 | 7.14 | 0.0 | 0 | 0.00 | 0.00 | 0.00 | 0.00 |
| 05/02/26 5:58:26 AM | 36 | 0.0 | 3.0 | 54 | 86 | 66.6 | 53.2 | 29.937 | 7.14 | 0.0 | 0 | 0.00 | 0.00 | 0.00 | 0.00 |
| 05/02/26 5:59:17 AM | 36 | 0.0 | 3.0 | 54 | 86 | 66.6 | 53.2 | 29.937 | 7.14 | 0.0 | 0 | 0.00 | 0.00 | 0.00 | 0.00 |
| 05/02/26 6:00:54 AM | 32 | 0.0 | 3.0 | 54 | 87 | 66.5 | 53.2 | 29.937 | 7.14 | 0.0 | 0 | 0.00 | 0.00 | 0.00 | 0.00 |
| 05/02/26 6:01:22 AM | 32 | 1.0 | 3.0 | 54 | 86 | 66.5 | 53.2 | 29.938 | 7.14 | 0.0 | 0 | 0.00 | 0.00 | 0.00 | 0.00 |
| 05/02/26 6:02:35 AM | 35 | 0.0 | 3.0 | 54 | 86 | 66.5 | 53.2 | 29.937 | 7.14 | 0.0 | 5 | 0.00 | 0.00 | 0.00 | 0.00 |
| 05/02/26 6:03:27 AM | 36 | 0.0 | 3.0 | 54 | 86 | 66.4 | 53.2 | 29.938 | 7.14 | 0.0 | 5 | 0.00 | 0.00 | 0.00 | 0.00 |
| 05/02/26 6:04:37 AM | 28 | 0.0 | 3.0 | 54 | 86 | 66.3 | 53.2 | 29.938 | 7.14 | 0.0 | 5 | 0.00 | 0.00 | 0.00 | 0.00 |
| 05/02/26 6:05:28 AM | 38 | 0.0 | 3.0 | 54 | 86 | 66.3 | 53.2 | 29.936 | 7.14 | 0.0 | 5 | 0.00 | 0.00 | 0.00 | 0.00 |
| 05/02/26 6:06:20 AM | 38 | 0.0 | 3.0 | 54 | 86 | 66.3 | 53.2 | 29.937 | 7.14 | 0.0 | 7 | 0.00 | 0.00 | 0.00 | 0.00 |
| 05/02/26 6:07:33 AM | 34 | 0.0 | 3.0 | 55 | 86 | 66.2 | 53.2 | 29.937 | 7.14 | 0.0 | 7 | 0.00 | 0.00 | 0.00 | 0.00 |
| 05/02/26 6:08:37 AM | 38 | 0.0 | 3.0 | 55 | 86 | 66.2 | 53.2 | 29.939 | 7.14 | 0.0 | 7 | 0.00 | 0.00 | 0.00 | 0.00 |
| 05/02/26 6:09:26 AM | 35 | 0.0 | 3.0 | 55 | 86 | 66.1 | 53.1 | 29.937 | 7.14 | 0.0 | 7 | 0.00 | 0.00 | 0.00 | 0.00 |
| 05/02/26 6:10:17 AM | 38 | 0.0 | 3.0 | 55 | 86 | 66.1 | 53.1 | 29.939 | 7.14 | 0.0 | 7 | 0.00 | 0.00 | 0.00 | 0.00 |
| 05/02/26 6:11:30 AM | 32 | 0.0 | 3.0 | 55 | 86 | 66.1 | 53.1 | 29.939 | 7.14 | 0.0 | 9 | 0.00 | 0.00 | 0.00 | 0.00 |
| 05/02/26 6:12:25 AM | 38 | 0.0 | 3.0 | 55 | 86 | 66.0 | 53.0 | 29.939 | 7.14 | 0.0 | 9 | 0.00 | 0.00 | 0.00 | 0.00 |
| 05/02/26 6:13:35 AM | 36 | 0.0 | 3.0 | 55 | 86 | 65.9 | 53.0 | 29.938 | 7.14 | 0.0 | 9 | 0.00 | 0.00 | 0.00 | 0.00 |
| 05/02/26 6:14:30 AM | 39 | 0.0 | 3.0 | 55 | 86 | 65.9 | 53.0 | 29.937 | 7.14 | 0.0 | 11 | 0.00 | 0.00 | 0.00 | 0.00 |
| 05/02/26 6:15:36 AM | 36 | 0.0 | 3.0 | 55 | 86 | 65.8 | 53.0 | 29.939 | 7.14 | 0.0 | 11 | 0.00 | 0.00 | 0.00 | 0.00 |
| 05/02/26 6:16:28 AM | 38 | 0.0 | 3.0 | 55 | 86 | 65.8 | 53.0 | 29.940 | 7.14 | 0.0 | 11 | 0.00 | 0.00 | 0.00 | 0.00 |
| 05/02/26 6:17:20 AM | 36 | 0.0 | 3.0 | 55 | 86 | 65.8 | 53.0 | 29.940 | 7.14 | 0.0 | 11 | 0.00 | 0.00 | 0.00 | 0.00 |
| 05/02/26 6:18:33 AM | 35 | 0.0 | 3.0 | 55 | 86 | 65.7 | 53.0 | 29.944 | 7.14 | 0.0 | 12 | 0.00 | 0.00 | 0.00 | 0.00 |
| 05/02/26 6:19:24 AM | 36 | 0.0 | 3.0 | 55 | 86 | 65.7 | 53.0 | 29.943 | 7.14 | 0.0 | 12 | 0.00 | 0.00 | 0.00 | 0.00 |
| 05/02/26 6:20:34 AM | 36 | 0.0 | 3.0 | 56 | 86 | 65.6 | 53.0 | 29.944 | 7.14 | 0.0 | 12 | 0.00 | 0.00 | 0.00 | 0.00 |
| 05/02/26 6:21:26 AM | 35 | 0.0 | 3.0 | 56 | 86 | 65.6 | 53.0 | 29.945 | 7.14 | 0.0 | 14 | 0.00 | 0.00 | 0.00 | 0.00 |
| 05/02/26 6:22:18 AM | 34 | 0.0 | 3.0 | 56 | 86 | 65.6 | 53.0 | 29.944 | 7.14 | 0.0 | 16 | 0.00 | 0.00 | 0.00 | 0.00 |
| 05/02/26 6:23:31 AM | 34 | 0.0 | 3.0 | 56 | 86 | 65.5 | 53.0 | 29.947 | 7.14 | 0.0 | 19 | 0.00 | 0.00 | 0.00 | 0.00 |
| 05/02/26 6:24:22 AM | 38 | 0.0 | 3.0 | 56 | 86 | 65.5 | 52.9 | 29.948 | 7.14 | 0.0 | 19 | 0.00 | 0.00 | 0.00 | 0.00 |
| 05/02/26 6:25:29 AM | 38 | 0.0 | 3.0 | 56 | 86 | 65.5 | 52.9 | 29.949 | 7.14 | 0.0 | 25 | 0.00 | 0.00 | 0.00 | 0.00 |
| 05/02/26 6:26:24 AM | 38 | 0.0 | 3.0 | 56 | 86 | 65.5 | 52.9 | 29.947 | 7.14 | 0.0 | 26 | 0.00 | 0.00 | 0.00 | 0.00 |
| 05/02/26 6:27:34 AM | 38 | 0.0 | 3.0 | 56 | 86 | 65.5 | 52.9 | 29.950 | 7.14 | 0.0 | 30 | 0.00 | 0.00 | 0.00 | 0.00 |
| 05/02/26 6:28:29 AM | 30 | 0.0 | 3.0 | 56 | 86 | 65.5 | 52.9 | 29.949 | 7.14 | 0.0 | 32 | 0.00 | 0.00 | 0.00 | 0.00 |
| 05/02/26 6:29:21 AM | 36 | 0.0 | 3.0 | 56 | 86 | 65.4 | 52.9 | 29.950 | 7.14 | 0.0 | 32 | 0.00 | 0.00 | 0.00 | 0.00 |
| 05/02/26 6:30:34 AM | 35 | 0.0 | 3.0 | 57 | 86 | 65.4 | 52.9 | 29.953 | 7.14 | 0.0 | 35 | 0.00 | 0.00 | 0.00 | 0.00 |
| 05/02/26 6:31:19 AM | 34 | 0.0 | 3.0 | 57 | 86 | 65.4 | 52.9 | 29.953 | 7.14 | 0.0 | 37 | 0.00 | 0.00 | 0.00 | 0.00 |
| 05/02/26 6:32:32 AM | 36 | 0.0 | 3.0 | 57 | 86 | 65.3 | 52.9 | 29.958 | 7.14 | 0.0 | 40 | 0.00 | 0.00 | 0.00 | 0.00 |
| 05/02/26 6:33:24 AM | 35 | 0.0 | 3.0 | 57 | 86 | 65.3 | 52.9 | 29.954 | 7.14 | 0.0 | 42 | 0.00 | 0.00 | 0.00 | 0.00 |
| 05/02/26 6:34:37 AM | 36 | 0.0 | 3.0 | 57 | 87 | 65.2 | 53.0 | 29.956 | 7.14 | 0.0 | 46 | 0.00 | 0.00 | 0.00 | 0.00 |
| 05/02/26 6:35:28 AM | 38 | 0.0 | 3.0 | 57 | 87 | 65.2 | 53.0 | 29.955 | 7.14 | 0.0 | 47 | 0.00 | 0.00 | 0.00 | 0.00 |
| 05/02/26 6:36:17 AM | 34 | 0.0 | 3.0 | 57 | 87 | 65.2 | 53.0 | 29.956 | 7.14 | 0.0 | 47 | 0.00 | 0.00 | 0.00 | 0.00 |
| 05/02/26 6:37:30 AM | 36 | 0.0 | 3.0 | 57 | 87 | 65.2 | 53.0 | 29.958 | 7.14 | 0.0 | 47 | 0.00 | 0.00 | 0.00 | 0.00 |
| 05/02/26 6:38:22 AM | 38 | 0.0 | 3.0 | 57 | 87 | 65.2 | 53.1 | 29.958 | 7.14 | 0.0 | 49 | 0.00 | 0.00 | 0.00 | 0.00 |
| 05/02/26 6:39:35 AM | 31 | 0.0 | 3.0 | 57 | 87 | 65.1 | 53.1 | 29.956 | 7.14 | 0.0 | 51 | 0.00 | 0.00 | 0.00 | 0.00 |
| 05/02/26 6:40:26 AM | 35 | 0.0 | 3.0 | 57 | 87 | 65.1 | 53.1 | 29.958 | 7.14 | 0.0 | 54 | 0.00 | 0.00 | 0.00 | 0.00 |
| 05/02/26 6:41:18 AM | 36 | 0.0 | 3.0 | 57 | 87 | 65.1 | 53.2 | 29.956 | 7.14 | 0.0 | 54 | 0.00 | 0.00 | 0.00 | 0.00 |
| 05/02/26 6:42:28 AM | 35 | 0.0 | 3.0 | 57 | 87 | 65.1 | 53.2 | 29.957 | 7.14 | 0.0 | 58 | 0.00 | 0.00 | 0.00 | 0.00 |
| 05/02/26 6:43:20 AM | 38 | 0.0 | 3.0 | 57 | 87 | 65.1 | 53.2 | 29.958 | 7.14 | 0.0 | 60 | 0.00 | 0.00 | 0.00 | 0.00 |
| 05/02/26 6:44:32 AM | 34 | 0.0 | 3.0 | 57 | 87 | 65.0 | 53.3 | 29.958 | 7.14 | 0.0 | 63 | 0.00 | 0.00 | 0.00 | 0.00 |
| 05/02/26 6:45:27 AM | 36 | 0.0 | 3.0 | 57 | 87 | 65.0 | 53.3 | 29.958 | 7.14 | 0.0 | 67 | 0.00 | 0.00 | 0.00 | 0.00 |
| 05/02/26 6:46:37 AM | 35 | 0.0 | 3.0 | 57 | 87 | 65.0 | 53.3 | 29.956 | 7.14 | 0.0 | 69 | 0.00 | 0.00 | 0.00 | 0.00 |
| 05/02/26 6:47:26 AM | 34 | 0.0 | 3.0 | 57 | 87 | 65.0 | 53.4 | 29.957 | 7.14 | 0.0 | 70 | 0.00 | 0.00 | 0.00 | 0.00 |
| 05/02/26 6:48:18 AM | 35 | 0.0 | 3.0 | 57 | 87 | 65.0 | 53.4 | 29.960 | 7.14 | 0.0 | 70 | 0.00 | 0.00 | 0.00 | 0.00 |
| 05/02/26 6:49:27 AM | 35 | 0.0 | 3.0 | 57 | 87 | 65.0 | 53.5 | 29.957 | 7.14 | 0.0 | 70 | 0.00 | 0.00 | 0.00 | 0.00 |
| 05/02/26 6:50:19 AM | 36 | 0.0 | 3.0 | 57 | 87 | 65.0 | 53.5 | 29.960 | 7.14 | 0.0 | 72 | 0.00 | 0.00 | 0.00 | 0.00 |
| 05/02/26 6:51:32 AM | 32 | 0.0 | 3.0 | 57 | 87 | 65.0 | 53.5 | 29.960 | 7.14 | 0.0 | 76 | 0.00 | 0.00 | 0.00 | 0.00 |
| 05/02/26 6:52:21 AM | 36 | 0.0 | 3.0 | 57 | 87 | 65.0 | 53.5 | 29.962 | 7.14 | 0.0 | 77 | 0.00 | 0.00 | 0.00 | 0.00 |
| 05/02/26 6:53:34 AM | 36 | 0.0 | 3.0 | 57 | 87 | 65.0 | 53.5 | 29.964 | 7.14 | 0.0 | 77 | 0.00 | 0.00 | 0.00 | 0.00 |
| 05/02/26 6:54:25 AM | 35 | 0.0 | 3.0 | 57 | 87 | 65.0 | 53.6 | 29.962 | 7.14 | 0.0 | 79 | 0.00 | 0.00 | 0.00 | 0.00 |
| 05/02/26 6:55:17 AM | 38 | 0.0 | 3.0 | 57 | 87 | 65.0 | 53.6 | 29.959 | 7.14 | 0.0 | 83 | 0.00 | 0.00 | 0.00 | 0.00 |
| 05/02/26 6:56:30 AM | 35 | 0.0 | 3.0 | 58 | 87 | 65.0 | 53.7 | 29.963 | 7.14 | 0.0 | 88 | 0.00 | 0.00 | 0.00 | 0.00 |
| 05/02/26 6:57:25 AM | 38 | 0.0 | 3.0 | 58 | 88 | 65.0 | 53.8 | 29.963 | 7.14 | 0.0 | 91 | 0.00 | 0.00 | 0.00 | 0.00 |
| 05/02/26 6:58:32 AM | 36 | 0.0 | 3.0 | 58 | 88 | 65.0 | 53.8 | 29.962 | 7.14 | 0.0 | 93 | 0.00 | 0.00 | 0.00 | 0.00 |
| 05/02/26 6:59:23 AM | 38 | 0.0 | 3.0 | 58 | 88 | 65.0 | 53.9 | 29.965 | 7.14 | 0.0 | 95 | 0.00 | 0.00 | 0.00 | 0.00 |
| 05/02/26 7:00:36 AM | 36 | 0.0 | 3.0 | 58 | 88 | 65.0 | 54.1 | 29.965 | 7.14 | 0.0 | 97 | 0.00 | 0.00 | 0.00 | 0.00 |
| 05/02/26 7:01:28 AM | 38 | 0.0 | 3.0 | 58 | 88 | 65.0 | 54.2 | 29.964 | 7.14 | 0.0 | 97 | 0.00 | 0.00 | 0.00 | 0.00 |
| 05/02/26 7:02:23 AM | 36 | 0.0 | 3.0 | 58 | 88 | 65.0 | 54.3 | 29.966 | 7.14 | 0.0 | 104 | 0.00 | 0.00 | 0.00 | 0.00 |
| 05/02/26 7:03:29 AM | 31 | 0.0 | 3.0 | 58 | 88 | 65.0 | 54.4 | 29.967 | 7.14 | 0.0 | 104 | 0.00 | 0.00 | 0.00 | 0.00 |
| 05/02/26 7:04:21 AM | 31 | 0.0 | 3.0 | 58 | 88 | 65.0 | 54.5 | 29.968 | 7.14 | 0.0 | 105 | 0.00 | 0.00 | 0.00 | 0.00 |
| 05/02/26 7:05:34 AM | 32 | 1.0 | 3.0 | 59 | 88 | 65.0 | 54.6 | 29.969 | 7.14 | 0.0 | 109 | 0.00 | 0.00 | 0.00 | 0.00 |
| 05/02/26 7:06:26 AM | 36 | 1.0 | 3.0 | 59 | 88 | 65.0 | 54.7 | 29.970 | 7.14 | 0.0 | 109 | 0.00 | 0.00 | 0.00 | 0.00 |
| 05/02/26 7:07:17 AM | 38 | 1.0 | 3.0 | 59 | 88 | 65.1 | 54.7 | 29.972 | 7.14 | 0.0 | 109 | 0.00 | 0.00 | 0.00 | 0.00 |
| 05/02/26 7:08:27 AM | 34 | 0.0 | 3.0 | 59 | 88 | 65.0 | 54.8 | 29.969 | 7.14 | 0.0 | 114 | 0.00 | 0.00 | 0.00 | 0.00 |
| 05/02/26 7:09:19 AM | 36 | 0.0 | 3.0 | 59 | 88 | 65.0 | 54.9 | 29.970 | 7.14 | 0.0 | 114 | 0.00 | 0.00 | 0.00 | 0.00 |
| 05/02/26 7:10:29 AM | 34 | 0.0 | 3.0 | 59 | 88 | 65.1 | 55.0 | 29.970 | 7.14 | 0.0 | 113 | 0.00 | 0.00 | 0.00 | 0.00 |
| 05/02/26 7:11:24 AM | 37 | 0.0 | 3.0 | 59 | 88 | 65.0 | 55.0 | 29.973 | 7.14 | 0.0 | 113 | 0.00 | 0.00 | 0.00 | 0.00 |
| 05/02/26 7:12:37 AM | 36 | 0.0 | 3.0 | 59 | 88 | 65.1 | 55.2 | 29.971 | 7.14 | 0.0 | 107 | 0.00 | 0.00 | 0.00 | 0.00 |
| 05/02/26 7:13:28 AM | 34 | 0.0 | 3.0 | 59 | 88 | 65.1 | 55.3 | 29.972 | 7.14 | 0.0 | 105 | 0.00 | 0.00 | 0.00 | 0.00 |
| 05/02/26 7:14:17 AM | 38 | 0.0 | 3.0 | 60 | 88 | 65.1 | 55.4 | 29.969 | 7.14 | 0.0 | 104 | 0.00 | 0.00 | 0.00 | 0.00 |
| 05/02/26 7:15:30 AM | 37 | 0.0 | 3.0 | 60 | 88 | 65.1 | 55.5 | 29.973 | 7.14 | 0.0 | 109 | 0.00 | 0.00 | 0.00 | 0.00 |
| 05/02/26 7:16:22 AM | 34 | 0.0 | 3.0 | 60 | 88 | 65.1 | 55.6 | 29.972 | 7.14 | 0.0 | 120 | 0.00 | 0.00 | 0.00 | 0.00 |
| 05/02/26 7:17:35 AM | 37 | 0.0 | 3.0 | 60 | 88 | 65.2 | 55.7 | 29.971 | 7.14 | 0.0 | 128 | 0.00 | 0.00 | 0.00 | 0.00 |
| 05/02/26 7:18:26 AM | 36 | 0.0 | 3.0 | 60 | 88 | 65.2 | 55.8 | 29.972 | 7.14 | 0.0 | 137 | 0.00 | 0.00 | 0.00 | 0.00 |
| 05/02/26 7:19:33 AM | 37 | 0.0 | 3.0 | 60 | 88 | 65.2 | 55.8 | 29.973 | 7.14 | 0.0 | 144 | 0.00 | 0.00 | 0.00 | 0.00 |
| 05/02/26 7:20:25 AM | 35 | 0.0 | 3.0 | 60 | 88 | 65.2 | 55.9 | 29.972 | 7.14 | 0.0 | 144 | 0.00 | 0.00 | 0.00 | 0.00 |
| 05/02/26 7:21:17 AM | 38 | 0.0 | 3.0 | 60 | 88 | 65.2 | 56.0 | 29.973 | 7.14 | 0.0 | 135 | 0.00 | 0.00 | 0.00 | 0.00 |
| 05/02/26 7:22:30 AM | 35 | 0.0 | 3.0 | 60 | 88 | 65.2 | 56.1 | 29.975 | 7.14 | 0.0 | 134 | 0.00 | 0.00 | 0.00 | 0.00 |
| 05/02/26 7:23:22 AM | 38 | 0.0 | 3.0 | 60 | 88 | 65.2 | 56.2 | 29.975 | 7.14 | 0.0 | 134 | 0.00 | 0.00 | 0.00 | 0.00 |
| 05/02/26 7:24:31 AM | 34 | 0.0 | 3.0 | 60 | 88 | 65.2 | 56.3 | 29.975 | 7.14 | 0.0 | 132 | 0.00 | 0.00 | 0.00 | 0.00 |
| 05/02/26 7:25:23 AM | 36 | 3.0 | 4.0 | 60 | 88 | 65.2 | 56.4 | 29.976 | 7.14 | 0.0 | 127 | 0.00 | 0.00 | 0.00 | 0.00 |
| 05/02/26 7:26:36 AM | 32 | 3.0 | 4.0 | 60 | 88 | 65.3 | 56.4 | 29.975 | 7.14 | 0.0 | 128 | 0.00 | 0.00 | 0.00 | 0.00 |
| 05/02/26 7:27:28 AM | 32 | 2.0 | 4.0 | 60 | 88 | 65.3 | 56.5 | 29.972 | 7.14 | 0.0 | 128 | 0.00 | 0.00 | 0.00 | 0.00 |
| 05/02/26 7:28:20 AM | 35 | 2.0 | 4.0 | 60 | 88 | 65.3 | 56.6 | 29.975 | 7.14 | 0.0 | 153 | 0.00 | 0.00 | 0.00 | 0.00 |
| 05/02/26 7:29:32 AM | 38 | 2.0 | 4.0 | 60 | 87 | 65.3 | 56.7 | 29.974 | 7.14 | 0.0 | 158 | 0.00 | 0.00 | 0.00 | 0.00 |
| 05/02/26 7:30:21 AM | 36 | 2.0 | 4.0 | 60 | 87 | 65.3 | 56.7 | 29.975 | 7.14 | 0.0 | 153 | 0.00 | 0.00 | 0.00 | 0.00 |
| 05/02/26 7:31:31 AM | 36 | 1.0 | 4.0 | 60 | 87 | 65.4 | 56.8 | 29.973 | 7.14 | 0.0 | 144 | 0.00 | 0.00 | 0.00 | 0.00 |
| 05/02/26 7:32:23 AM | 35 | 1.0 | 4.0 | 61 | 87 | 65.4 | 56.8 | 29.975 | 7.14 | 0.0 | 139 | 0.00 | 0.00 | 0.00 | 0.00 |
| 05/02/26 7:33:18 AM | 35 | 3.0 | 5.0 | 61 | 87 | 65.4 | 56.9 | 29.976 | 7.14 | 0.0 | 137 | 0.00 | 0.00 | 0.00 | 0.00 |
| 05/02/26 7:34:27 AM | 36 | 3.0 | 5.0 | 61 | 87 | 65.4 | 57.0 | 29.975 | 7.14 | 0.0 | 141 | 0.00 | 0.00 | 0.00 | 0.00 |
| 05/02/26 7:35:16 AM | 38 | 4.0 | 5.0 | 61 | 87 | 65.4 | 57.0 | 29.976 | 7.14 | 0.0 | 149 | 0.00 | 0.00 | 0.00 | 0.00 |
| 05/02/26 7:36:29 AM | 34 | 3.0 | 5.0 | 61 | 87 | 65.5 | 57.1 | 29.973 | 7.14 | 0.0 | 153 | 0.00 | 0.00 | 0.00 | 0.00 |
| 05/02/26 7:37:21 AM | 35 | 1.0 | 5.0 | 61 | 87 | 65.5 | 57.1 | 29.974 | 7.14 | 0.0 | 151 | 0.00 | 0.00 | 0.00 | 0.00 |
| 05/02/26 7:38:34 AM | 32 | 4.0 | 5.0 | 61 | 86 | 65.5 | 57.1 | 29.977 | 7.14 | 0.0 | 158 | 0.00 | 0.00 | 0.00 | 0.00 |
| 05/02/26 7:39:25 AM | 32 | 3.0 | 5.0 | 61 | 86 | 65.5 | 57.2 | 29.975 | 7.14 | 0.0 | 158 | 0.00 | 0.00 | 0.00 | 0.00 |
| 05/02/26 7:40:17 AM | 34 | 2.0 | 5.0 | 61 | 86 | 65.5 | 57.2 | 29.976 | 7.14 | 0.0 | 227 | 0.00 | 0.00 | 0.00 | 0.00 |
| 05/02/26 7:41:27 AM | 31 | 2.0 | 5.0 | 61 | 86 | 65.5 | 57.3 | 29.977 | 7.14 | 0.0 | 236 | 0.00 | 0.00 | 0.00 | 0.00 |
| 05/02/26 7:42:19 AM | 37 | 5.0 | 5.0 | 61 | 86 | 65.5 | 57.3 | 29.976 | 7.14 | 0.0 | 220 | 0.00 | 0.00 | 0.00 | 0.00 |
| 05/02/26 7:43:32 AM | 32 | 4.0 | 5.0 | 61 | 86 | 65.5 | 57.5 | 29.974 | 7.14 | 0.5 | 214 | 0.00 | 0.00 | 0.00 | 0.00 |
| 05/02/26 7:44:24 AM | 37 | 5.0 | 5.0 | 61 | 86 | 65.6 | 57.5 | 29.975 | 7.14 | 0.5 | 211 | 0.00 | 0.00 | 0.00 | 0.00 |
| 05/02/26 7:45:37 AM | 32 | 4.0 | 6.0 | 61 | 86 | 65.6 | 57.6 | 29.973 | 7.14 | 0.5 | 209 | 0.00 | 0.00 | 0.00 | 0.00 |
| 05/02/26 7:46:22 AM | 36 | 4.0 | 6.0 | 61 | 86 | 65.6 | 57.6 | 29.972 | 7.14 | 0.5 | 216 | 0.00 | 0.00 | 0.00 | 0.00 |
| 05/02/26 7:47:35 AM | 38 | 3.0 | 6.0 | 61 | 86 | 65.6 | 57.6 | 29.974 | 7.14 | 0.5 | 225 | 0.00 | 0.00 | 0.00 | 0.00 |
| 05/02/26 7:48:30 AM | 32 | 5.0 | 6.0 | 61 | 86 | 65.6 | 57.7 | 29.974 | 7.14 | 0.5 | 230 | 0.00 | 0.00 | 0.00 | 0.00 |
| 05/02/26 7:49:19 AM | 35 | 3.0 | 6.0 | 61 | 85 | 65.6 | 57.7 | 29.974 | 7.14 | 0.5 | 227 | 0.00 | 0.00 | 0.00 | 0.00 |
| 05/02/26 7:50:32 AM | 31 | 3.0 | 6.0 | 61 | 85 | 65.6 | 57.7 | 29.973 | 7.14 | 0.5 | 232 | 0.00 | 0.00 | 0.00 | 0.00 |
| 05/02/26 7:51:20 AM | 34 | 4.0 | 6.0 | 61 | 85 | 65.6 | 57.8 | 29.972 | 7.14 | 0.5 | 237 | 0.00 | 0.00 | 0.00 | 0.00 |
| 05/02/26 7:52:33 AM | 39 | 1.0 | 6.0 | 61 | 85 | 65.7 | 57.9 | 29.973 | 7.14 | 0.5 | 239 | 0.00 | 0.00 | 0.00 | 0.00 |
| 05/02/26 7:53:25 AM | 37 | 3.0 | 6.0 | 61 | 85 | 65.6 | 57.9 | 29.973 | 7.14 | 0.6 | 246 | 0.00 | 0.00 | 0.00 | 0.00 |
| 05/02/26 7:54:17 AM | 36 | 2.0 | 6.0 | 61 | 85 | 65.6 | 58.0 | 29.972 | 7.14 | 0.6 | 257 | 0.00 | 0.00 | 0.00 | 0.00 |
| 05/02/26 7:55:30 AM | 32 | 3.0 | 6.0 | 61 | 85 | 65.6 | 58.0 | 29.972 | 7.14 | 0.6 | 276 | 0.00 | 0.00 | 0.00 | 0.00 |
| 05/02/26 7:56:22 AM | 32 | 2.0 | 6.0 | 62 | 85 | 65.6 | 58.1 | 29.972 | 7.14 | 0.6 | 276 | 0.00 | 0.00 | 0.00 | 0.00 |
| 05/02/26 7:57:28 AM | 38 | 3.0 | 6.0 | 62 | 85 | 65.7 | 58.2 | 29.974 | 7.14 | 0.6 | 288 | 0.00 | 0.00 | 0.00 | 0.00 |
| 05/02/26 7:58:20 AM | 37 | 4.0 | 6.0 | 62 | 85 | 65.6 | 58.3 | 29.972 | 7.14 | 0.6 | 287 | 0.00 | 0.00 | 0.00 | 0.00 |
| 05/02/26 7:59:33 AM | 35 | 3.0 | 6.0 | 62 | 85 | 65.7 | 58.5 | 29.972 | 7.14 | 0.6 | 287 | 0.00 | 0.00 | 0.00 | 0.00 |
| 05/02/26 8:00:25 AM | 36 | 2.0 | 6.0 | 62 | 85 | 65.7 | 58.6 | 29.972 | 7.14 | 0.6 | 304 | 0.00 | 0.00 | 0.00 | 0.00 |
| 05/02/26 8:01:35 AM | 36 | 1.0 | 6.0 | 62 | 85 | 65.6 | 58.7 | 29.974 | 7.14 | 0.7 | 315 | 0.00 | 0.00 | 0.00 | 0.00 |
| 05/02/26 8:02:24 AM | 37 | 2.0 | 6.0 | 62 | 85 | 65.7 | 58.7 | 29.973 | 7.14 | 0.7 | 316 | 0.00 | 0.00 | 0.00 | 0.00 |
| 05/02/26 8:03:36 AM | 35 | 2.0 | 6.0 | 62 | 85 | 65.7 | 58.8 | 29.973 | 7.14 | 0.7 | 323 | 0.00 | 0.00 | 0.00 | 0.00 |
| 05/02/26 8:04:28 AM | 38 | 2.0 | 6.0 | 62 | 85 | 65.7 | 58.9 | 29.970 | 7.14 | 0.7 | 327 | 0.00 | 0.00 | 0.00 | 0.00 |
| 05/02/26 8:05:17 AM | 30 | 1.0 | 6.0 | 62 | 85 | 65.7 | 59.0 | 29.973 | 7.14 | 0.7 | 330 | 0.00 | 0.00 | 0.00 | 0.00 |
| 05/02/26 8:06:30 AM | 34 | 3.0 | 6.0 | 62 | 85 | 65.7 | 59.0 | 29.970 | 7.14 | 0.7 | 330 | 0.00 | 0.00 | 0.00 | 0.00 |
| 05/02/26 8:07:19 AM | 36 | 3.0 | 6.0 | 62 | 84 | 65.7 | 59.2 | 29.973 | 7.14 | 0.7 | 334 | 0.00 | 0.00 | 0.00 | 0.00 |
| 05/02/26 8:08:41 AM | 36 | 2.0 | 6.0 | 62 | 85 | 65.7 | 59.3 | 29.973 | 7.14 | 0.8 | 332 | 0.00 | 0.00 | 0.00 | 0.00 |
| 05/02/26 8:09:32 AM | 38 | 3.0 | 6.0 | 62 | 85 | 65.7 | 59.4 | 29.973 | 7.14 | 0.8 | 334 | 0.00 | 0.00 | 0.00 | 0.00 |
| 05/02/26 8:10:24 AM | 31 | 3.0 | 6.0 | 62 | 84 | 65.7 | 59.5 | 29.971 | 7.14 | 0.8 | 334 | 0.00 | 0.00 | 0.00 | 0.00 |
| 05/02/26 8:11:19 AM | 34 | 1.0 | 6.0 | 62 | 84 | 65.8 | 59.5 | 29.971 | 7.14 | 0.8 | 339 | 0.00 | 0.00 | 0.00 | 0.00 |
| 05/02/26 8:12:32 AM | 38 | 2.0 | 6.0 | 62 | 84 | 65.8 | 59.6 | 29.970 | 7.14 | 0.8 | 353 | 0.00 | 0.00 | 0.00 | 0.00 |
| 05/02/26 8:13:21 AM | 36 | 0.0 | 6.0 | 62 | 84 | 65.8 | 59.7 | 29.971 | 7.14 | 0.8 | 352 | 0.00 | 0.00 | 0.00 | 0.00 |
| 05/02/26 8:14:34 AM | 36 | 0.0 | 6.0 | 63 | 84 | 65.8 | 59.8 | 29.969 | 7.14 | 0.9 | 359 | 0.00 | 0.00 | 0.00 | 0.00 |
| 05/02/26 8:15:47 AM | 35 | 1.0 | 6.0 | 63 | 84 | 65.8 | 59.8 | 29.969 | 7.14 | 0.9 | 360 | 0.00 | 0.00 | 0.00 | 0.00 |
| 05/02/26 8:16:17 AM | 38 | 2.0 | 6.0 | 63 | 84 | 65.8 | 59.9 | 29.970 | 7.14 | 0.9 | 362 | 0.00 | 0.00 | 0.00 | 0.00 |
| 05/02/26 8:17:30 AM | 36 | 3.0 | 6.0 | 63 | 84 | 65.8 | 60.0 | 29.968 | 7.14 | 0.9 | 364 | 0.00 | 0.00 | 0.00 | 0.00 |
| 05/02/26 8:18:22 AM | 35 | 2.0 | 6.0 | 63 | 84 | 65.8 | 60.2 | 29.966 | 7.14 | 0.9 | 369 | 0.00 | 0.00 | 0.00 | 0.00 |
| 05/02/26 8:19:29 AM | 36 | 2.0 | 6.0 | 63 | 83 | 65.8 | 60.3 | 29.968 | 7.14 | 0.9 | 373 | 0.00 | 0.00 | 0.00 | 0.00 |
| 05/02/26 8:20:21 AM | 36 | 2.0 | 6.0 | 63 | 83 | 65.8 | 60.4 | 29.967 | 7.14 | 1.0 | 374 | 0.00 | 0.00 | 0.00 | 0.00 |
University Police wind advisory reference
For campus closure information please call the campus Emergency Hotline at (909) 537-5999
© All rights reserved. Unauthorized duplication or distribution is prohibited
Never base important decisions on this or any weather information obtained from the Internet
California State University, San Bernardino
5500 University Parkway, San Bernardino, CA. 92407
Phone: (909) 537-5108, Email: Weather Webmaster
Last Updated: